ECMWFFLT2_sfc_thetae_000.txt.gz
Theta_e
316 316 318 317 318 305 311 311 306 309 316 313 308 309 308 308 305 303 312 309 311 315 316 319 320 320 321 321 321 322 324 323 336 332 332 332 333 333 335 338 339 345 347 349 355 352 346 346 349 351 354 353 353 353 351 353 353 354 353 353 353 351 353
316 319 318 318 317 317 313 306 310 316 317 315 310 301 308 303 300 302 306 304 306 307 304 319 318 317 318 320 320 320 324 325 324 326 334 334 339 338 340 341 342 345 348 352 350 349 346 347 350 351 353 353 354 352 351 353 353 351 352 352 351 351 352
315 318 317 314 317 318 313 311 317 308 303 302 310 306 298 298 299 301 305 307 306 308 309 314 315 316 317 320 323 321 321 322 324 324 338 342 342 344 342 339 340 340 345 346 349 347 346 349 350 354 354 353 353 351 352 352 351 351 352 349 352 354 354
315 315 313 305 310 315 317 317 313 315 310 308 306 306 307 306 299 300 302 305 304 311 312 314 315 319 322 319 320 319 319 321 324 328 336 339 342 341 338 337 339 338 343 345 346 346 346 347 348 353 351 348 346 348 352 352 352 352 352 352 354 354 352
314 307 311 308 310 308 309 309 309 310 309 313 312 310 306 303 301 301 300 299 307 313 317 317 318 319 321 318 320 327 322 323 322 327 329 335 340 342 338 344 343 342 338 346 349 350 347 351 350 349 348 346 345 345 346 347 350 348 348 350 352 353 354
308 310 314 313 313 313 310 309 307 308 307 305 302 302 311 308 304 300 301 299 309 314 320 323 318 320 319 320 320 326 323 321 332 330 330 336 337 341 340 345 342 336 340 346 344 346 350 348 345 343 347 345 343 343 344 344 345 344 343 348 352 351 353
308 312 316 317 317 316 314 312 309 312 311 310 306 298 304 308 307 309 307 302 307 318 321 321 321 319 318 321 320 321 321 324 323 326 323 339 347 342 335 336 341 342 344 342 345 349 350 347 345 345 346 342 339 341 344 343 344 343 343 344 349 353 350
313 315 316 317 317 315 312 313 313 312 309 310 308 307 310 306 307 303 304 302 305 317 331 325 321 328 320 322 320 321 320 322 326 325 326 342 346 349 343 339 335 347 351 351 349 350 350 347 347 345 343 343 342 342 343 341 342 341 342 344 345 351 351
308 309 311 312 315 314 311 310 312 313 312 312 311 312 319 307 307 306 303 298 304 316 343 330 322 319 318 319 320 323 322 328 323 333 334 351 349 353 347 347 352 343 345 347 346 348 348 348 347 347 345 344 342 344 342 339 340 341 343 348 348 350 348
298 298 298 301 305 308 311 312 312 312 310 311 309 304 312 301 313 316 305 305 314 320 327 321 321 320 324 321 321 320 326 328 324 332 330 341 354 359 352 352 347 341 344 343 346 347 346 345 345 349 347 344 344 345 343 340 337 341 344 338 339 345 346
303 307 314 313 313 310 306 309 310 310 313 313 312 313 311 303 309 308 309 313 313 315 316 318 318 322 318 319 323 324 325 329 343 336 346 345 346 356 349 359 352 354 350 348 346 350 348 346 349 348 346 344 342 344 342 338 342 348 347 344 343 341 343
313 311 313 312 312 310 310 309 309 311 311 312 310 307 305 321 311 304 312 314 312 313 316 319 321 321 325 323 327 324 327 331 326 336 346 342 343 341 345 351 355 353 352 345 345 346 351 348 348 348 346 344 343 340 337 336 341 343 346 346 346 346 346
311 311 311 312 312 311 312 312 311 310 310 310 308 311 312 318 309 305 319 323 317 315 316 317 320 323 326 320 321 323 325 324 338 338 330 329 331 339 338 344 354 340 347 348 346 346 348 348 347 346 345 343 342 339 335 335 338 343 349 351 350 346 346
309 310 311 312 311 311 312 311 311 311 311 310 310 310 311 311 318 317 322 322 315 314 316 318 321 326 324 323 326 326 326 321 335 329 329 322 326 332 336 344 346 347 349 344 345 347 348 348 347 345 342 341 339 335 335 340 339 344 351 350 350 350 346
308 311 312 311 311 310 309 311 312 312 311 311 312 311 311 313 312 312 312 321 317 318 329 325 326 340 332 332 321 321 332 328 322 325 324 329 327 331 340 346 346 353 345 342 344 346 348 347 347 344 343 341 342 336 338 339 340 342 348 349 351 349 343
306 309 309 310 311 310 309 309 310 310 310 309 310 309 312 312 314 318 314 316 313 318 323 321 325 325 327 325 328 326 326 323 326 329 328 329 337 339 344 340 340 340 345 345 347 348 349 347 347 346 348 344 346 339 338 339 341 346 346 347 346 347 345
304 309 310 309 309 308 305 306 309 311 312 312 313 313 315 315 314 314 309 308 320 324 325 322 323 319 323 325 322 323 336 341 332 334 334 333 333 338 344 352 346 342 344 346 351 349 348 346 346 345 347 344 342 343 342 342 342 343 343 346 344 346 347
305 308 309 310 306 298 300 313 314 314 311 312 310 310 313 316 318 314 316 319 325 321 321 319 320 320 325 329 335 337 334 332 336 331 331 330 329 330 332 336 343 350 345 341 347 350 350 348 345 343 343 345 344 343 342 343 343 342 343 342 342 343 345
304 308 308 303 298 299 316 315 315 316 315 314 313 313 315 315 318 317 316 318 319 322 320 322 322 323 326 328 329 324 324 339 335 336 328 336 338 337 338 344 339 350 352 350 349 351 350 348 345 342 340 341 344 340 337 339 343 339 342 342 344 346 346
307 305 303 295 298 313 316 316 317 319 317 316 314 314 313 315 315 320 316 319 319 326 322 321 327 332 324 324 338 336 329 327 327 323 326 327 327 330 335 340 350 351 352 351 346 347 348 348 345 343 343 340 336 333 338 339 338 344 343 343 345 344 345
302 303 302 302 315 309 313 314 315 315 314 314 312 307 312 319 320 319 321 320 320 320 320 321 323 324 322 322 322 327 328 334 327 327 328 325 328 333 347 339 344 361 358 354 349 352 350 346 344 343 340 335 335 334 332 335 343 340 342 342 341 341 343
308 303 301 301 301 298 306 317 317 319 319 318 318 317 311 319 319 319 321 321 322 321 321 322 324 327 322 315 320 324 326 328 330 328 328 326 330 332 335 358 352 362 367 362 359 353 351 347 340 339 337 335 336 336 334 337 334 335 338 338 341 343 341
307 304 300 299 299 304 316 315 316 319 320 318 317 313 306 321 320 320 319 318 322 322 321 323 324 320 313 317 321 326 327 327 327 328 328 328 328 335 335 338 336 342 356 364 359 359 348 337 339 338 337 337 336 337 336 331 331 334 338 340 340 341 342
306 306 301 300 306 305 315 315 316 318 319 318 314 302 304 323 319 320 321 319 321 322 327 324 322 320 312 313 322 322 324 326 330 333 344 341 335 342 347 341 341 353 370 365 347 342 339 341 343 342 339 335 334 336 332 333 331 335 337 339 341 343 342
305 304 304 306 309 317 316 316 318 318 319 317 306 299 309 320 323 322 327 321 322 325 326 324 316 325 323 324 326 323 323 323 326 328 328 329 330 330 328 335 351 349 361 353 344 343 342 342 339 338 335 334 336 338 339 337 335 338 340 341 345 346 346
303 305 302 303 307 317 316 320 318 320 314 304 304 316 327 326 324 324 320 320 322 325 328 325 327 327 323 323 322 323 323 322 327 328 326 326 325 329 345 350 357 353 345 351 346 343 344 341 338 338 339 342 340 339 339 337 343 349 349 348 347 346 346
306 307 304 300 296 320 320 318 317 321 315 319 321 326 323 322 323 322 323 322 326 324 327 326 334 327 321 322 323 323 324 323 326 335 331 335 333 332 342 344 342 339 336 344 341 341 339 337 338 345 341 345 343 347 340 342 346 346 347 347 346 346 347
307 306 304 300 312 318 321 321 312 318 319 324 326 323 321 324 323 323 324 325 329 327 328 329 326 325 326 331 330 329 330 329 328 334 337 338 344 334 327 335 340 336 342 344 342 339 337 338 347 353 335 341 346 353 347 346 348 347 347 352 353 354 353
311 307 310 316 322 319 321 322 321 322 324 325 326 325 321 322 323 328 325 328 326 329 329 329 329 324 326 325 323 323 325 327 326 336 336 336 331 332 334 323 337 338 338 339 338 343 350 342 341 342 346 350 351 344 341 339 337 343 340 339 349 346 346
320 322 320 318 319 320 318 319 321 321 322 323 325 324 323 325 325 327 324 324 325 327 333 325 327 326 326 326 323 323 324 325 327 342 335 337 337 329 333 343 346 338 335 340 336 338 342 341 339 340 344 346 344 347 345 345 343 341 347 343 342 339 347
311 303 322 316 316 318 318 318 320 321 321 321 323 325 326 324 324 325 326 328 328 325 330 329 330 326 323 323 324 329 332 334 342 338 343 339 333 329 331 334 335 336 335 335 337 336 335 337 338 341 346 344 351 347 343 343 342 346 349 345 350 347 347
310 314 318 320 317 319 319 318 318 318 320 321 322 324 326 328 327 327 326 325 324 324 322 330 329 327 325 326 336 330 330 331 336 331 332 337 342 343 340 338 336 333 333 336 334 332 337 338 338 338 337 340 343 344 337 336 338 343 345 345 341 341 339
314 318 318 318 319 317 317 318 320 321 322 321 321 322 322 321 321 323 324 324 322 321 322 331 332 328 329 330 331 324 331 333 332 335 334 336 339 346 343 339 334 332 333 336 337 336 333 336 339 337 336 332 331 337 338 335 345 341 340 341 342 337 336
309 312 314 318 312 313 314 316 318 321 323 323 321 321 320 320 321 322 321 322 325 325 327 325 324 330 334 330 335 327 333 332 334 337 339 341 341 341 341 341 339 340 343 339 339 336 340 342 336 338 338 333 325 323 331 333 337 338 343 336 331 328 332
305 311 314 319 319 318 317 317 318 321 323 323 320 320 320 320 321 320 320 319 323 325 328 330 327 335 337 336 334 330 331 334 337 337 336 336 334 335 339 338 340 341 343 342 340 341 340 337 334 335 333 329 336 329 338 339 334 338 335 343 336 327 330
311 314 314 316 316 314 316 318 319 320 323 321 319 319 320 320 320 320 320 321 321 323 326 327 328 330 333 331 333 332 329 330 335 336 334 335 337 333 335 337 338 339 338 338 338 340 338 336 335 336 328 330 333 330 336 333 337 340 337 338 335 329 327
310 314 314 315 315 316 317 319 319 319 323 321 319 318 319 319 319 319 320 323 322 320 322 324 324 330 331 331 334 336 333 334 333 333 332 330 331 332 329 330 335 337 338 336 334 334 334 334 335 333 333 334 336 331 337 334 336 337 336 336 328 327 331

ECMWFFLT2_sfc_thetae_003.txt.gz
Theta_e
311 311 313 312 312 298 303 306 299 302 308 307 302 307 306 305 301 296 308 307 310 312 314 320 321 320 321 323 324 325 325 326 326 326 326 329 330 329 331 332 335 338 339 341 342 340 341 345 344 345 348 348 347 346 344 343 342 343 342 344 342 341 341
311 314 313 313 313 312 306 300 303 312 313 310 307 297 302 297 293 296 301 298 300 302 301 317 317 317 319 320 322 323 323 324 324 325 325 327 328 329 331 333 335 339 339 340 342 342 343 345 344 346 348 347 347 346 344 342 342 342 341 343 341 343 340
312 313 312 310 313 314 306 306 313 305 297 298 305 302 294 293 293 295 300 305 304 303 308 312 312 315 316 316 318 321 320 322 323 323 324 326 328 329 330 333 335 338 339 340 343 344 345 346 347 348 348 347 346 345 345 343 342 342 342 343 340 343 341
310 311 309 300 304 310 313 313 308 311 305 303 301 300 300 298 293 297 295 301 297 312 307 311 311 313 313 313 313 316 317 319 323 323 325 327 327 328 330 332 335 338 340 342 345 345 344 345 347 348 347 347 345 345 345 343 343 343 343 341 342 341 340
310 302 305 303 303 300 303 303 303 305 305 307 304 306 300 296 293 292 295 294 302 306 312 312 314 314 314 315 314 315 316 318 318 322 326 327 330 334 331 332 336 338 340 344 346 345 345 346 347 348 346 346 345 344 344 344 343 341 343 341 342 341 341
302 303 309 310 309 307 303 302 301 301 300 299 294 293 305 303 296 290 294 295 304 312 326 317 316 316 317 318 315 314 314 313 319 324 327 328 329 331 332 332 337 339 341 344 345 345 345 345 345 348 345 345 344 343 345 345 344 342 342 341 343 341 341
303 307 311 313 312 311 309 307 305 306 303 303 298 289 296 303 302 305 301 297 301 311 317 315 315 316 316 318 317 315 315 314 320 328 329 329 330 332 333 333 338 340 342 343 344 343 343 343 344 346 344 344 343 343 345 344 342 342 343 343 344 343 340
308 310 312 312 313 311 308 308 309 306 303 303 300 299 305 299 302 297 298 297 300 310 316 313 315 317 316 316 315 314 317 314 316 323 330 329 331 334 335 335 337 339 340 342 342 342 342 342 342 344 343 343 342 342 344 343 341 341 341 344 344 342 341
298 303 307 307 310 310 305 304 306 307 308 307 306 306 314 302 302 301 296 291 299 313 323 314 314 314 314 314 314 315 315 316 318 318 323 331 333 333 333 333 335 336 337 339 340 341 341 341 342 343 343 341 341 340 342 342 341 341 341 344 342 340 339
290 291 291 293 298 302 305 307 307 307 307 306 303 299 302 293 301 303 298 300 304 313 313 312 311 312 315 313 314 316 318 314 321 324 321 331 335 333 332 332 332 333 335 337 338 340 342 342 341 341 342 340 340 340 340 341 341 340 340 342 342 339 337
295 298 300 308 309 304 302 305 307 306 308 308 305 303 299 294 295 298 295 305 305 310 312 311 310 313 311 313 315 318 320 326 321 320 323 323 331 334 335 333 332 333 333 334 336 338 341 343 341 341 341 338 338 338 339 340 341 340 339 340 340 339 338
305 313 315 310 310 305 306 305 305 307 306 306 305 301 299 304 299 290 299 305 306 308 310 310 311 312 313 314 316 319 320 318 322 328 328 332 333 337 338 335 333 333 333 334 335 338 340 341 341 340 341 338 337 337 338 338 339 338 340 340 340 339 339
311 310 308 309 309 309 308 307 307 306 306 305 303 304 307 310 301 297 303 306 307 310 311 313 313 315 315 314 315 316 318 324 326 322 325 327 332 328 335 335 336 335 334 335 336 338 340 340 340 340 340 339 338 338 338 336 337 337 340 341 340 340 339
307 306 307 308 307 308 308 307 307 307 306 306 306 305 306 309 310 309 311 310 311 312 312 314 315 320 317 317 317 318 316 321 322 323 325 325 326 329 327 337 336 337 337 337 338 339 340 340 339 340 339 338 338 337 334 335 337 336 337 338 337 338 338
307 306 308 307 306 309 304 307 308 308 307 307 306 307 307 308 306 315 311 309 311 315 316 315 317 319 317 317 315 319 321 320 320 323 323 323 323 324 327 333 337 337 338 339 339 340 340 339 339 340 338 336 336 335 332 335 336 337 336 335 335 335 335
303 306 305 305 306 305 304 305 306 306 306 305 308 306 306 306 305 306 310 306 305 311 316 320 318 317 316 315 316 316 318 319 321 319 321 322 328 330 337 334 335 337 338 338 338 339 340 340 340 339 336 334 333 331 329 334 336 338 337 337 337 336 337
300 304 305 305 305 303 300 301 304 306 306 308 309 309 311 310 309 305 308 307 312 316 318 313 315 318 319 319 321 322 321 322 323 322 324 327 328 326 328 338 338 338 338 339 339 340 342 340 340 338 336 332 330 329 328 334 337 337 337 338 339 339 337
301 304 304 304 301 294 295 312 312 311 309 309 306 308 310 312 318 310 312 314 317 315 315 313 314 315 314 315 318 320 320 318 323 325 325 325 324 324 324 325 337 339 338 338 340 340 342 341 340 339 337 332 331 330 330 333 334 334 336 338 339 338 336
301 306 307 298 291 294 313 317 315 313 312 312 310 311 312 314 316 316 315 314 315 317 317 318 318 317 319 321 320 320 327 326 328 328 327 331 330 326 326 326 327 331 338 338 337 339 341 342 340 339 336 334 331 331 333 332 333 333 336 338 337 337 336
305 301 299 290 293 309 320 313 312 315 315 313 311 309 312 313 315 318 314 315 314 314 314 315 317 320 322 320 322 321 322 321 325 323 320 321 322 324 326 324 324 325 338 339 338 340 343 342 340 339 336 336 332 333 334 332 334 335 337 337 337 337 336
297 298 297 297 310 307 310 309 315 309 310 310 306 301 307 314 318 318 318 315 315 315 316 320 318 316 318 316 317 322 326 328 326 323 323 322 323 323 330 328 327 330 343 341 341 343 341 341 340 339 338 337 334 335 334 334 335 336 337 336 335 335 335
304 299 296 297 296 294 301 313 316 316 315 315 313 307 305 320 320 318 315 313 317 318 317 316 317 317 312 309 313 318 322 325 323 324 324 322 324 325 335 341 339 339 351 344 342 343 340 339 339 340 338 337 334 333 333 333 333 333 336 335 335 335 336
303 301 295 296 294 299 308 315 314 314 314 315 314 307 300 313 321 319 320 316 316 314 316 316 317 312 307 311 314 320 323 321 323 322 322 323 325 329 330 328 327 329 339 345 346 344 342 339 338 337 337 334 333 331 331 330 330 331 333 335 335 335 336
304 302 298 296 302 301 312 312 312 313 315 318 309 297 298 316 319 322 320 320 318 318 317 319 316 310 306 311 316 317 319 321 327 324 324 328 328 331 333 329 329 339 341 337 335 335 331 332 335 335 334 332 330 328 327 328 328 329 332 335 335 335 336
301 302 299 303 305 316 316 314 314 315 316 313 299 292 305 315 320 322 319 319 322 320 315 317 315 319 318 314 319 318 319 319 322 325 325 324 325 325 323 333 341 336 334 331 327 325 326 329 330 332 335 332 329 329 327 328 328 331 333 334 334 333 333
299 300 298 299 305 317 317 318 317 319 313 300 301 313 323 321 318 320 320 318 319 320 322 322 323 319 320 321 320 320 320 319 317 325 326 325 324 341 339 337 336 336 334 329 328 326 328 329 332 332 331 331 329 327 328 326 328 332 333 333 333 332 332
304 303 300 295 290 310 318 317 318 318 313 310 320 324 323 324 318 321 321 321 320 320 319 322 323 320 324 322 320 319 320 321 322 319 318 321 320 334 335 335 338 336 331 328 325 326 328 330 331 330 329 327 328 329 329 331 334 332 332 333 333 332 332
301 302 298 295 309 316 319 317 309 316 319 323 325 323 318 320 320 320 320 323 323 323 322 322 320 321 320 320 319 319 319 319 320 320 322 325 331 335 336 338 337 336 330 327 326 327 331 332 331 329 326 326 331 327 324 328 329 332 334 337 335 332 332
309 305 308 316 322 316 316 319 318 318 319 320 321 320 318 317 317 322 320 321 323 324 322 322 320 318 319 320 320 319 320 318 323 326 325 326 325 328 330 333 336 336 331 326 325 327 329 330 331 328 327 333 330 327 330 334 331 331 334 334 333 331 332
316 318 320 321 318 317 315 317 317 317 318 320 321 321 318 320 322 323 320 322 323 323 324 321 322 321 323 320 318 318 320 328 327 325 321 323 326 326 328 331 335 334 331 328 327 328 330 331 332 332 331 332 328 328 334 333 333 333 333 332 331 333 337
305 299 318 313 315 316 316 316 318 317 317 317 320 319 319 319 319 319 322 321 322 323 322 325 325 325 322 318 321 328 329 324 324 326 327 326 324 325 328 331 333 331 331 331 332 333 331 332 335 337 336 335 333 336 336 336 336 336 334 335 337 335 335
309 310 317 317 318 315 316 316 315 316 316 317 319 319 318 318 319 319 320 320 320 322 322 323 322 323 323 324 327 325 328 329 330 330 329 328 330 329 328 329 329 328 329 329 330 328 327 326 326 328 331 334 335 333 333 335 337 337 337 334 331 331 332
315 320 319 317 314 314 315 317 318 319 319 317 318 319 318 319 322 319 319 320 320 321 322 323 323 327 325 327 325 326 327 329 330 329 330 329 329 330 328 327 328 328 328 327 325 324 324 324 320 319 320 325 330 331 332 336 337 333 332 334 334 332 331
309 310 310 317 307 308 311 313 316 319 320 320 319 318 318 318 319 317 316 317 319 321 322 322 322 332 330 329 326 326 327 327 331 332 331 331 331 330 330 330 329 329 327 324 322 322 323 322 320 320 322 326 328 329 334 335 334 332 333 333 333 329 325
304 314 317 322 320 319 316 316 319 321 319 319 320 317 316 316 317 317 315 316 317 317 319 322 322 325 329 329 328 327 328 329 330 332 331 331 331 332 331 328 326 325 325 327 326 325 324 322 321 322 324 325 326 331 332 330 333 334 333 330 327 324 326
313 317 319 322 320 315 317 318 318 321 324 321 315 315 316 315 315 316 316 319 317 316 318 319 321 323 327 326 326 326 328 330 329 327 327 329 330 332 333 332 330 328 328 327 326 324 323 324 324 325 325 326 328 329 327 330 328 330 329 329 325 323 323
306 311 314 319 319 318 319 318 317 317 317 319 317 315 318 317 315 317 319 317 317 317 315 314 315 317 322 328 326 326 327 328 331 330 329 330 332 332 332 331 330 329 328 326 326 325 325 324 323 323 325 327 326 326 327 330 332 329 328 325 323 322 328

ECMWFFLT2_sfc_thetae_006.txt.gz
Theta_e
306 307 308 308 308 297 300 302 297 300 304 304 299 302 301 301 295 292 299 301 300 304 308 313 318 319 320 322 322 322 322 323 323 324 324 327 332 335 335 334 336 338 340 342 343 343 343 344 344 345 347 349 348 346 344 341 339 339 338 339 336 336 334
306 309 309 308 309 305 301 299 299 304 308 305 298 291 295 293 289 291 298 296 297 301 297 311 316 317 318 320 321 322 322 322 322 323 325 326 329 332 334 334 336 338 340 342 343 343 343 344 344 345 347 349 349 347 344 341 339 338 338 339 337 337 334
307 309 307 306 308 309 304 303 306 302 295 297 297 296 291 290 290 290 293 297 297 298 300 310 312 315 316 318 319 320 320 321 323 323 324 326 329 330 331 332 334 338 339 341 343 343 343 344 345 345 347 349 348 346 344 342 340 339 339 340 338 338 335
306 307 304 298 302 306 309 307 304 306 302 297 295 297 294 294 289 292 290 296 292 302 304 311 313 315 317 318 318 319 321 322 323 324 324 325 326 328 329 331 334 337 339 341 342 342 342 342 343 345 346 348 347 346 344 342 341 340 339 339 339 337 335
306 299 302 300 301 300 300 301 299 302 305 302 302 303 297 295 289 288 288 290 293 300 308 314 315 316 317 318 318 320 321 322 324 324 325 325 326 328 329 330 333 336 339 341 342 343 343 343 344 345 346 347 347 345 344 342 340 339 339 339 339 338 336
298 298 304 306 304 305 300 300 298 300 297 297 294 291 298 298 294 287 288 288 293 303 315 317 316 318 318 320 320 319 320 322 323 323 324 324 325 327 329 330 333 336 338 340 341 342 342 342 342 343 346 347 346 344 344 342 341 339 339 339 339 338 337
299 303 307 309 308 307 304 305 301 303 299 297 294 289 291 297 297 300 294 292 294 305 313 316 317 317 318 318 319 319 320 321 322 323 323 324 326 326 329 330 331 335 337 338 340 340 339 341 342 343 345 345 345 344 343 342 340 339 340 339 339 339 337
304 306 307 308 308 308 303 303 302 302 300 299 296 293 294 295 296 295 295 293 292 304 313 315 314 314 314 316 318 318 318 318 320 320 322 323 325 327 328 330 331 334 336 338 339 339 339 340 341 342 344 345 345 344 343 342 340 339 339 339 339 339 337
295 298 302 302 306 306 300 298 302 303 302 303 300 300 301 298 296 295 292 287 294 305 318 311 314 314 314 313 315 316 313 314 317 320 323 324 328 328 328 329 331 333 335 336 338 339 339 340 342 343 343 344 343 343 343 341 340 340 339 340 338 338 337
288 288 289 290 294 298 301 302 303 304 303 302 300 297 299 292 296 298 293 291 295 304 310 310 312 312 311 311 310 313 314 316 319 322 323 325 328 328 327 329 331 332 334 337 338 339 340 340 342 342 342 343 343 343 342 342 341 340 339 340 338 337 337
292 295 294 299 303 300 300 300 303 302 303 303 302 297 293 294 289 298 291 301 300 307 307 306 308 310 310 308 308 312 314 317 322 323 324 327 329 328 328 329 331 332 333 336 338 339 340 341 341 343 342 342 342 342 342 342 341 340 339 339 338 337 336
301 301 300 305 306 302 302 301 302 302 302 302 300 297 295 297 296 290 291 299 305 306 306 306 307 308 309 308 310 313 314 317 320 322 323 333 328 328 329 329 330 331 333 335 337 339 340 341 341 343 343 342 341 341 341 341 340 339 340 339 338 336 336
303 304 305 307 304 304 303 303 303 302 301 300 300 300 300 301 297 295 298 301 306 307 308 308 309 310 310 309 312 315 316 317 317 319 322 325 327 328 328 329 330 331 332 334 336 338 340 340 340 341 342 341 341 341 341 341 340 339 340 339 338 336 336
302 303 304 305 303 303 304 304 303 304 303 301 302 301 303 303 301 303 303 304 307 309 309 309 311 312 312 312 314 313 314 316 317 317 318 323 328 328 328 328 329 330 332 333 334 337 338 339 339 340 341 340 340 339 340 340 339 338 340 339 337 336 335
301 303 305 304 302 303 302 303 304 304 304 303 303 303 304 306 303 304 304 305 305 310 311 311 311 311 311 312 312 313 314 317 319 318 317 319 328 329 329 329 329 329 330 332 333 334 337 338 339 340 341 340 339 339 339 339 339 338 339 339 337 336 335
298 303 302 302 302 302 302 302 303 303 303 301 305 302 301 304 303 304 304 303 304 309 312 313 312 311 312 311 311 312 313 316 318 318 317 317 319 322 325 330 331 330 330 330 330 331 334 338 339 339 339 340 338 338 338 338 339 338 338 338 337 336 337
296 301 301 302 302 300 300 300 301 303 306 306 308 310 312 310 306 305 302 302 308 310 314 312 310 310 310 311 312 312 313 315 316 316 316 316 320 323 324 326 331 332 333 333 332 332 334 336 339 340 340 338 337 337 337 338 339 337 337 338 337 336 335
294 300 301 302 297 292 294 303 307 308 306 307 305 304 308 312 310 305 306 307 311 312 312 312 310 309 311 313 315 318 318 317 317 319 319 320 321 321 329 330 331 333 334 335 335 335 335 337 339 341 341 339 338 338 338 337 336 336 336 335 336 336 335
295 300 300 296 290 293 306 313 310 310 310 310 307 307 308 312 312 312 310 310 311 312 313 313 312 313 316 316 316 315 315 316 316 316 318 317 318 317 321 327 332 332 334 335 336 336 337 338 338 339 339 339 338 335 335 335 335 335 335 335 335 336 336
297 294 294 289 291 302 311 311 313 315 311 308 309 307 309 311 309 310 309 309 310 312 313 315 316 316 317 318 319 318 317 318 317 318 318 319 321 321 322 320 322 331 334 335 336 337 340 340 340 339 339 337 335 333 334 334 334 334 335 334 335 334 334
292 293 292 294 302 304 305 307 310 306 306 307 304 299 305 311 313 309 308 309 313 313 313 315 315 315 316 313 314 315 320 321 322 320 318 320 319 319 320 321 322 321 330 335 336 338 338 339 340 339 338 334 333 332 331 332 333 333 335 334 332 331 332
299 294 292 293 292 292 300 307 312 310 311 309 307 303 302 310 313 315 312 311 311 312 312 312 313 315 311 309 311 315 318 321 321 319 319 320 321 326 330 328 331 336 336 335 336 336 335 334 334 332 330 330 330 329 329 331 331 331 331 330 332 333 332
298 294 288 290 290 294 303 308 310 311 309 310 307 302 298 307 311 315 314 310 311 312 311 311 312 309 304 305 310 312 318 318 318 318 318 320 323 322 323 330 336 337 338 336 336 335 333 332 331 331 331 330 329 329 330 330 330 329 329 329 330 330 331
298 295 292 293 297 299 308 310 311 313 311 311 305 293 293 307 313 315 315 313 313 313 314 311 310 309 305 305 309 313 318 320 321 318 321 324 326 326 328 333 332 332 336 335 331 330 330 330 332 332 332 331 330 329 329 329 329 327 327 329 329 330 333
298 299 295 296 302 311 314 313 313 316 314 306 294 289 300 310 313 314 314 315 315 314 314 312 308 311 310 310 314 316 317 318 319 322 324 322 323 325 331 333 336 327 327 331 331 330 330 331 332 332 332 330 329 329 329 328 328 329 329 329 330 332 332
297 297 294 295 301 310 312 313 316 317 307 296 297 305 309 315 315 315 315 314 315 315 315 314 311 313 316 319 317 316 316 317 318 320 320 320 326 335 336 334 328 325 325 326 328 329 330 331 333 332 331 329 329 328 327 327 328 330 330 331 333 333 332
301 300 296 294 290 304 314 314 313 315 302 304 312 317 317 319 315 316 316 316 315 314 313 315 314 314 314 315 316 316 318 318 319 320 319 319 321 329 330 329 328 326 324 325 327 328 329 331 332 332 331 329 329 329 326 327 330 330 332 332 333 333 332
298 297 292 293 303 308 314 315 307 312 314 316 321 317 312 316 317 316 315 316 316 316 314 314 315 315 315 315 315 315 317 320 320 321 322 327 330 332 334 332 328 326 324 325 326 327 328 330 330 331 331 329 329 328 327 329 329 330 331 331 332 331 332
303 301 304 310 314 313 313 314 313 314 316 317 316 315 313 313 314 316 316 316 318 319 319 319 319 318 318 316 316 317 322 321 320 320 322 323 323 326 330 332 331 325 324 323 324 325 326 328 330 331 331 329 329 327 328 329 328 329 329 330 330 330 330
312 314 314 316 313 312 312 313 314 314 314 315 315 313 312 312 314 316 315 317 319 319 321 319 319 319 320 323 324 323 321 321 323 323 321 322 324 328 331 330 329 326 323 323 323 324 324 325 327 329 329 329 329 328 327 329 329 329 330 329 329 328 330
300 298 309 312 312 312 313 312 313 314 315 314 314 313 313 313 314 315 315 315 316 318 319 320 320 321 321 321 324 324 324 326 325 322 321 321 323 326 328 330 329 323 322 322 322 323 323 324 325 327 328 327 327 326 328 328 329 330 330 330 332 332 331
302 304 309 313 315 312 313 313 312 312 313 314 314 314 314 315 317 315 316 317 315 315 315 317 322 324 323 321 322 326 326 326 325 323 322 322 322 323 326 329 325 323 322 322 325 325 325 327 328 328 326 324 327 329 330 331 331 332 332 331 329 328 326
313 316 316 317 309 310 311 314 314 314 313 312 312 313 313 313 313 314 316 317 315 314 313 314 317 324 324 324 324 326 325 325 324 323 323 322 322 322 324 325 326 325 326 325 324 324 323 326 329 328 328 329 330 330 329 329 329 329 329 330 328 327 327
304 305 308 312 304 302 308 312 314 315 314 312 311 311 312 312 311 312 313 315 317 317 316 316 317 316 323 326 322 325 325 324 323 324 324 324 324 324 325 326 326 326 325 323 320 318 317 320 323 325 327 326 323 321 322 323 323 323 325 327 326 325 325
303 310 313 313 310 309 310 313 318 319 315 312 311 310 310 311 312 313 314 314 314 317 319 318 315 315 321 325 325 324 325 326 327 328 327 326 326 326 326 324 322 320 320 320 319 318 318 321 323 322 320 319 319 320 319 319 319 320 322 325 325 326 325
312 316 317 317 310 307 311 314 316 314 315 311 311 313 314 314 313 315 315 315 314 315 314 313 315 315 314 322 325 323 325 328 328 328 328 327 326 326 324 323 321 321 321 319 318 318 319 321 320 320 320 320 321 323 322 322 321 320 320 321 324 325 325
309 313 314 312 310 310 310 309 310 310 314 315 312 313 316 315 317 318 311 310 310 310 309 310 311 314 316 320 324 324 326 327 327 326 327 328 328 325 324 324 323 323 321 320 320 320 320 320 319 321 321 323 325 328 328 329 327 323 320 322 322 321 323

ECMWFFLT2_sfc_thetae_009.txt.gz
Theta_e
303 303 306 305 306 295 298 300 296 298 302 301 297 299 299 295 292 290 295 298 297 301 305 307 315 313 313 318 318 319 319 320 321 323 325 327 330 333 334 335 337 339 340 341 341 342 343 344 345 346 347 348 349 349 348 348 347 343 339 337 334 333 332
303 306 306 306 307 304 298 296 298 301 304 300 297 291 292 290 287 289 294 295 294 297 294 306 314 312 314 316 316 318 318 319 320 323 325 326 328 332 335 336 337 339 340 341 341 342 343 344 345 346 347 348 349 349 349 348 346 342 339 337 334 332 332
303 305 304 303 305 307 305 303 303 301 293 295 294 293 289 287 288 287 291 294 295 296 297 304 309 311 312 314 316 316 317 319 320 322 324 325 328 331 333 334 336 338 339 340 341 342 343 344 345 346 347 348 349 349 349 348 346 344 340 338 335 334 333
302 303 301 297 301 303 305 303 301 304 300 294 294 295 293 293 286 288 288 291 294 300 298 305 307 312 313 314 314 316 318 319 321 322 323 324 326 329 332 333 335 337 339 340 341 341 342 343 344 345 346 347 348 348 348 347 347 344 340 337 337 334 333
302 297 298 299 300 296 297 299 297 300 304 299 298 299 293 294 286 285 285 288 291 296 302 307 308 312 315 316 316 317 318 320 321 322 323 324 325 328 331 333 334 336 338 340 341 342 343 344 344 345 345 346 347 348 347 347 345 342 339 338 336 335 334
294 294 299 303 302 302 300 300 298 297 295 296 293 292 296 295 292 285 286 289 290 299 310 310 310 314 317 318 318 318 319 320 321 322 324 324 324 327 330 333 334 335 337 339 341 342 342 342 343 343 344 345 346 346 347 346 345 342 340 338 337 336 334
297 300 303 304 304 305 303 303 300 300 297 296 292 288 291 293 295 296 292 290 293 301 308 311 312 315 318 319 319 319 320 320 321 322 324 325 325 326 328 331 333 334 335 338 339 341 341 341 342 343 343 344 345 346 346 346 344 342 341 339 338 337 334
300 303 303 303 303 303 300 301 301 300 297 298 296 293 293 295 293 293 292 291 289 299 309 312 313 314 316 318 319 319 320 321 322 322 323 323 324 325 328 330 332 333 335 337 338 339 340 340 340 341 343 343 345 345 346 345 344 343 342 340 338 337 335
294 298 299 299 301 302 297 295 299 301 300 301 297 297 295 296 293 294 291 288 290 300 312 311 312 314 316 317 319 319 319 319 321 322 322 323 324 325 326 327 328 330 332 335 337 338 339 340 340 341 342 343 343 344 345 345 344 344 342 341 339 337 335
287 287 288 289 292 295 297 298 299 301 301 299 298 296 296 291 294 295 291 289 292 300 305 310 311 312 313 316 317 318 319 319 320 321 321 322 323 324 325 326 326 327 331 334 336 338 339 340 340 340 341 342 343 344 345 345 344 343 342 341 339 338 336
292 293 292 296 300 296 297 297 300 299 302 302 301 296 292 293 289 294 289 295 297 302 306 306 309 310 312 312 311 315 316 316 318 319 320 321 323 324 325 326 327 327 329 332 335 337 338 339 340 340 341 341 342 343 344 345 345 343 342 340 339 337 336
299 298 298 299 301 298 298 298 298 299 300 300 299 298 297 296 294 289 292 294 302 302 304 306 308 310 312 314 314 315 316 316 315 316 319 328 322 324 325 325 325 326 328 331 333 335 337 338 339 340 341 341 342 343 343 344 344 343 342 340 338 337 336
300 301 301 301 301 300 299 299 299 299 299 298 299 299 298 299 299 295 295 296 302 303 306 308 310 311 312 312 312 315 317 316 315 316 319 321 322 323 324 324 325 326 327 329 332 334 336 337 338 338 340 340 341 342 343 343 343 342 342 339 337 336 334
299 299 300 302 301 301 301 299 299 300 300 299 301 300 300 301 299 301 301 299 303 306 308 309 311 314 315 314 312 311 312 314 316 317 319 321 322 323 323 324 324 326 328 329 331 333 335 336 337 338 339 339 340 341 342 342 342 342 340 338 336 334 332
296 298 300 300 300 300 299 300 300 300 299 299 300 301 301 303 301 301 300 301 303 307 309 312 312 310 309 308 310 311 313 314 317 318 319 321 322 323 324 324 324 326 328 329 331 332 334 335 337 338 338 340 340 341 341 342 342 342 340 337 333 331 332
294 298 298 299 299 299 299 299 300 299 297 296 297 298 299 300 300 299 300 299 301 307 307 309 306 307 309 309 309 310 311 314 317 318 319 321 322 323 324 324 325 325 327 328 328 330 333 335 336 338 338 339 340 340 340 341 341 341 338 334 331 332 333
292 297 299 298 298 299 296 297 300 300 298 299 301 305 306 304 302 298 297 299 306 308 310 307 306 307 308 308 309 310 311 314 316 317 319 321 322 324 324 325 326 326 327 328 328 329 331 334 336 338 339 339 339 340 340 341 341 338 335 332 332 332 333
291 296 297 297 295 290 290 299 300 303 303 304 302 302 303 307 305 300 302 305 305 308 307 307 306 307 308 310 312 313 314 313 313 314 316 318 321 323 324 326 327 328 328 329 329 329 330 333 336 339 340 340 341 341 340 338 337 335 334 333 332 332 332
291 295 297 294 289 290 302 308 309 307 307 308 306 305 306 308 309 309 306 307 307 309 310 309 309 311 311 312 313 314 315 315 315 314 314 316 320 322 323 324 326 327 329 330 330 329 330 331 333 336 338 339 339 338 337 337 336 335 334 333 332 332 332
292 292 292 289 290 300 309 309 310 312 310 308 307 305 306 308 309 308 307 306 307 308 309 310 312 313 312 313 314 314 315 316 316 316 316 318 319 319 322 323 324 325 327 329 331 332 334 332 332 335 337 338 337 334 335 335 334 334 333 332 332 333 332
292 289 289 292 302 304 306 306 310 306 306 306 305 299 302 308 309 308 306 307 309 310 310 312 313 313 313 312 312 315 315 317 317 319 318 318 317 317 319 323 324 327 328 330 331 332 333 334 334 335 336 337 334 332 333 333 334 333 333 332 332 332 332
294 290 289 294 293 292 298 306 312 315 310 308 310 307 302 308 310 311 309 308 309 310 311 311 311 314 311 308 310 314 314 319 319 317 317 318 317 317 318 321 324 321 326 331 334 335 334 335 336 335 335 334 331 331 331 331 332 332 332 332 333 333 333
294 292 289 287 289 295 302 306 310 312 312 308 310 305 299 306 310 311 310 309 311 311 311 312 314 312 307 305 309 311 314 317 317 317 316 318 320 324 325 330 331 329 328 332 334 335 334 335 334 334 332 331 330 330 330 331 332 331 331 331 333 333 334
297 293 290 291 295 298 306 309 311 313 314 312 307 296 295 306 312 312 311 310 309 310 310 310 310 308 305 305 309 310 314 315 318 317 319 320 320 322 328 333 335 335 335 334 329 330 332 333 331 331 330 330 330 330 330 330 330 331 332 332 333 335 334
298 299 295 297 301 308 311 310 311 312 311 307 299 292 299 311 311 312 311 310 310 309 309 309 307 308 307 308 311 312 314 315 315 316 318 320 322 326 330 333 340 333 331 331 332 332 333 332 330 330 330 329 329 330 330 329 329 331 333 333 333 333 333
297 295 294 296 299 307 310 312 311 313 305 295 295 305 311 313 312 312 311 311 311 310 310 310 308 310 312 316 313 315 315 314 315 315 318 324 328 333 335 333 329 327 327 328 329 329 330 330 330 330 330 330 329 328 328 328 330 332 332 332 332 332 331
299 296 293 291 293 304 310 310 310 311 300 300 305 311 312 316 313 314 314 312 311 312 311 311 311 312 312 313 314 315 317 317 317 319 320 317 327 328 327 327 327 326 325 328 328 327 329 330 330 330 330 330 328 329 327 329 331 331 331 331 330 331 330
294 293 290 291 300 306 312 309 306 309 309 311 313 312 310 312 313 314 315 315 315 315 315 314 315 314 314 315 315 317 317 317 317 318 320 324 326 328 330 328 326 327 323 324 325 325 327 328 328 329 329 330 329 328 328 329 328 329 329 329 329 329 330
300 298 301 306 309 310 311 312 310 310 311 313 313 312 311 310 310 313 313 314 316 317 317 316 316 316 318 318 318 318 318 318 317 318 319 320 322 326 327 326 326 323 322 322 322 324 325 327 327 327 327 327 328 327 326 328 327 328 329 329 328 328 328
311 310 310 313 309 309 310 313 313 312 312 312 312 311 310 310 311 311 310 311 312 314 318 318 317 317 317 318 319 320 321 321 320 321 319 320 322 325 326 325 326 323 321 322 323 324 324 325 325 326 325 326 325 324 325 328 326 327 328 329 328 327 327
298 296 306 308 309 310 310 311 312 313 313 312 312 312 312 312 313 312 311 311 311 311 312 312 312 315 318 319 321 321 322 323 323 322 320 320 321 322 323 325 327 321 322 322 323 324 323 322 324 325 323 324 325 326 327 326 327 327 328 329 329 328 326
299 303 307 310 310 310 311 309 309 309 310 313 315 315 316 316 318 317 316 316 314 314 313 312 312 311 312 315 318 321 325 324 324 323 323 322 322 323 323 325 324 321 321 320 323 323 323 322 324 324 325 327 327 327 327 328 328 328 328 328 327 326 325
307 310 310 312 309 310 311 311 310 310 311 310 311 311 313 313 313 314 314 315 315 315 314 315 314 314 313 315 319 321 322 322 320 320 322 324 322 321 323 324 323 319 320 321 321 324 323 322 325 325 324 324 325 325 327 328 329 328 329 330 327 325 325
302 303 306 312 305 304 310 313 312 311 310 310 310 311 312 311 313 313 312 312 313 313 314 314 314 313 316 316 320 322 321 320 320 320 320 322 324 324 324 325 324 324 323 322 322 323 322 322 320 317 316 316 316 318 321 324 327 326 326 324 323 323 324
301 308 311 310 309 308 310 313 314 312 312 312 311 313 312 312 312 311 311 310 310 311 312 317 315 312 315 316 318 321 324 322 323 324 323 323 324 324 324 322 320 320 319 322 321 322 320 317 315 315 314 314 314 315 316 318 319 321 322 322 322 323 325
313 313 311 311 307 305 306 308 309 310 311 311 310 310 310 309 309 309 308 307 307 306 308 309 311 313 315 318 320 319 319 320 323 325 326 326 324 325 324 322 320 320 319 320 321 320 317 316 316 317 317 317 317 317 316 317 318 319 320 320 319 320 323
309 311 308 308 307 307 308 308 309 310 312 312 311 312 310 309 310 310 309 309 308 309 310 311 313 315 315 317 320 320 319 320 322 324 326 326 326 323 322 321 318 318 317 319 320 318 316 317 318 318 318 319 321 322 321 320 319 319 320 321 322 323 324

ECMWFFLT2_sfc_thetae_012.txt.gz
Theta_e
299 299 303 302 303 295 296 298 295 297 300 299 296 298 295 292 290 289 294 297 296 300 306 308 310 313 313 313 315 316 316 316 319 320 322 325 327 329 331 333 334 335 337 339 340 341 341 343 343 345 346 347 347 347 347 347 348 348 348 348 346 346 344
300 301 303 303 304 300 296 294 296 300 302 299 297 290 290 289 287 287 293 295 294 297 295 304 310 310 311 311 312 315 315 315 317 319 322 325 327 329 331 333 335 336 337 339 340 342 342 343 343 345 346 348 348 349 348 348 348 347 348 347 346 344 342
298 301 301 300 302 303 303 297 301 299 293 294 291 292 287 286 286 285 289 294 294 296 298 300 305 308 310 311 312 313 313 315 317 319 321 324 327 329 330 332 334 335 337 338 340 341 343 343 345 345 347 348 349 349 349 348 348 348 348 347 346 344 342
298 299 298 294 298 302 300 301 299 302 298 293 293 294 291 293 285 286 287 290 291 298 299 302 306 308 310 311 311 312 314 316 317 318 321 323 325 328 330 332 333 335 337 339 340 340 342 343 344 345 346 347 347 348 349 348 348 349 348 346 345 342 340
298 295 295 297 298 295 295 297 294 298 301 298 296 297 292 292 287 286 284 287 289 295 302 304 307 308 310 312 313 314 315 316 317 319 321 323 325 327 330 332 333 335 337 339 340 341 342 343 345 345 345 345 346 348 348 348 347 347 347 345 343 342 338
292 293 296 300 300 299 296 297 295 296 293 294 292 291 294 292 292 284 285 289 290 300 306 308 308 309 311 314 314 315 316 317 318 319 321 323 324 326 329 332 333 335 337 339 340 342 342 342 343 343 345 345 345 346 347 348 348 347 346 345 343 341 337
294 297 299 300 300 301 300 300 297 299 296 294 292 288 290 292 293 295 291 290 293 301 305 308 310 309 312 315 316 315 316 317 318 319 321 323 325 326 328 331 333 335 336 338 340 341 341 341 342 343 344 344 345 346 347 347 347 347 347 346 344 341 335
297 299 300 302 301 300 298 298 299 299 297 299 297 294 292 294 292 293 291 291 288 297 307 309 309 311 312 315 315 316 316 317 318 319 320 322 323 325 328 331 333 334 336 338 339 340 340 341 341 342 343 344 345 345 346 347 347 347 347 346 343 338 334
291 295 297 297 298 299 296 295 296 298 299 300 296 296 294 296 293 295 291 288 290 299 309 308 311 312 314 316 317 317 316 317 319 319 320 321 323 324 325 328 331 333 334 335 337 339 340 341 341 342 342 343 344 344 346 346 347 347 347 346 341 336 334
284 284 287 289 293 294 293 296 296 298 298 296 296 294 294 291 292 294 290 288 292 298 303 309 311 311 312 314 316 317 317 318 318 319 320 321 322 323 324 326 329 330 332 335 337 338 339 340 341 341 342 343 343 344 345 346 346 346 346 345 340 335 333
290 291 291 294 298 293 295 294 297 296 298 300 300 295 292 292 288 293 289 295 297 300 304 306 307 310 312 313 314 316 317 318 319 320 321 321 322 323 323 325 327 330 331 333 335 337 339 340 340 341 341 342 343 343 344 345 346 346 346 344 339 335 333
297 298 297 296 299 296 295 296 296 297 297 297 298 296 295 294 293 289 292 293 300 300 303 305 306 308 310 312 315 317 318 318 319 320 321 327 321 322 323 324 325 327 329 332 333 335 337 339 340 341 341 342 342 343 343 344 345 346 345 343 338 335 333
298 299 299 298 298 297 296 296 297 296 297 296 297 297 297 297 297 295 295 294 299 301 304 306 308 310 312 313 314 317 320 320 319 319 319 320 321 321 322 323 324 325 326 329 332 334 336 337 338 340 341 341 342 343 343 344 345 345 345 341 337 335 332
298 298 298 299 299 297 297 296 296 296 296 296 298 299 299 299 299 300 300 297 301 304 305 306 309 311 314 314 315 316 317 316 318 318 319 320 320 321 322 323 324 325 326 328 330 333 334 336 337 338 339 340 341 341 342 343 344 344 342 339 336 333 332
295 297 297 296 298 298 298 298 298 296 296 296 297 298 299 301 300 299 298 299 300 304 305 308 310 312 310 310 313 315 317 316 316 317 318 319 320 321 322 323 323 325 326 327 329 331 332 334 336 338 339 340 341 341 341 342 343 342 341 337 335 333 332
292 295 296 296 296 296 296 297 298 297 295 294 295 297 297 299 299 299 298 297 299 305 305 309 310 309 311 311 311 312 313 314 317 317 318 319 320 320 321 323 323 324 325 326 327 329 331 333 335 336 338 339 339 340 341 341 342 340 338 336 335 334 333
290 295 295 296 294 294 292 293 296 297 297 298 297 300 302 302 301 298 296 298 304 307 309 308 306 308 310 311 310 311 312 315 317 317 318 319 320 321 322 323 324 323 324 326 327 328 329 331 333 335 338 337 338 339 340 341 340 338 336 335 334 333 333
289 294 294 294 291 286 288 295 299 300 298 298 298 298 299 301 302 299 301 303 305 307 307 308 307 306 309 312 313 313 314 314 315 316 317 318 320 321 322 323 324 324 325 326 328 328 330 332 334 336 338 338 339 340 340 340 338 336 335 334 334 333 333
292 293 294 291 287 288 296 302 305 300 302 301 300 304 305 307 306 306 305 304 303 306 308 309 309 310 311 314 313 312 312 314 315 316 317 318 320 321 322 323 324 325 327 328 329 329 330 332 334 336 337 338 339 339 339 338 337 335 334 334 333 333 333
291 291 290 285 284 293 303 305 307 309 304 304 305 303 304 306 307 305 304 306 305 305 307 308 311 311 312 312 315 315 314 315 316 316 317 318 321 322 324 325 326 327 328 329 329 330 333 332 333 334 336 338 338 338 338 337 335 334 334 333 333 333 333
291 288 290 288 296 301 303 303 305 304 302 302 303 298 302 305 309 306 304 304 305 306 308 310 310 311 311 310 311 311 316 316 317 318 318 320 322 324 325 327 328 329 330 330 330 332 332 331 331 332 335 338 338 337 336 336 335 334 333 333 333 333 333
291 289 288 291 293 290 296 302 308 310 310 310 308 302 301 306 309 309 306 306 307 307 308 309 310 311 309 308 309 310 312 317 318 318 320 322 324 324 325 324 324 326 327 330 333 333 332 332 332 333 335 337 336 335 335 335 334 333 333 332 333 333 333
292 291 288 286 288 292 298 303 307 312 312 311 308 303 299 306 309 309 307 307 309 309 309 309 309 308 304 304 307 311 312 316 314 316 316 318 319 320 320 322 324 323 327 331 334 334 333 333 332 333 335 335 334 334 334 334 334 333 332 333 333 333 334
294 289 287 289 292 297 304 306 308 310 311 310 303 295 294 303 309 310 309 308 307 308 310 309 308 307 304 305 312 311 315 316 317 319 320 322 325 328 331 333 330 329 335 336 333 333 333 333 333 334 334 334 334 333 333 334 333 333 333 334 334 335 335
294 296 290 292 297 304 307 308 309 309 311 305 296 290 298 308 309 310 311 309 308 308 309 310 307 308 310 310 313 314 318 317 317 320 322 323 327 329 331 334 338 332 332 332 332 333 333 333 333 334 333 333 333 333 332 333 333 334 336 336 335 335 335
294 291 291 292 295 302 307 309 309 310 306 295 292 301 310 310 309 309 310 309 310 311 311 311 310 310 314 317 317 318 318 318 318 320 323 327 329 331 334 333 330 328 328 328 328 328 328 330 331 332 334 333 333 332 331 332 334 335 336 335 335 335 335
296 292 292 292 290 302 309 307 308 308 299 298 304 310 311 314 312 312 313 313 312 312 311 312 313 314 315 316 316 317 319 320 321 322 323 324 326 327 328 327 329 329 325 325 327 327 329 329 329 331 332 333 332 331 330 330 331 333 334 334 335 335 334
295 292 290 290 299 305 310 308 303 307 307 309 311 311 309 312 313 313 313 313 314 315 315 315 315 315 315 315 316 317 317 318 319 320 321 324 326 328 328 327 327 327 324 325 325 326 327 328 328 329 330 331 331 330 329 328 331 333 333 333 334 333 334
298 297 300 304 307 308 309 309 308 309 311 312 311 310 310 311 311 313 313 313 314 315 315 315 315 315 315 316 317 317 318 319 319 319 320 323 326 328 328 327 329 323 323 323 323 325 325 327 327 327 328 331 332 330 328 330 331 331 332 332 332 332 331
309 308 309 310 309 309 309 311 311 310 310 311 310 308 308 308 308 310 310 310 311 312 315 315 315 316 316 317 317 317 317 317 319 321 322 323 324 325 326 326 328 322 322 323 324 326 325 325 326 329 326 329 332 329 328 331 330 331 331 331 331 330 330
299 297 308 307 307 308 308 309 312 313 314 313 313 310 310 311 310 310 310 310 310 311 312 314 314 315 318 319 319 318 317 317 318 318 320 322 323 324 326 327 328 321 322 323 325 326 326 324 326 326 326 327 329 328 329 328 330 330 330 330 330 329 328
302 302 310 310 309 310 310 307 307 308 310 311 313 314 315 316 316 315 314 313 312 313 312 313 312 313 316 317 317 318 318 319 319 321 321 322 323 324 324 326 326 321 321 322 325 325 324 325 325 326 326 327 327 328 328 329 330 331 330 330 328 327 327
307 310 311 310 309 307 308 310 310 310 309 309 311 312 312 312 311 311 312 313 312 313 312 313 314 315 315 317 319 322 322 320 318 319 321 322 322 323 322 323 325 322 322 323 323 324 324 323 325 326 326 327 327 327 328 329 330 330 329 330 328 326 327
300 301 303 307 303 302 306 309 311 312 312 310 309 309 308 309 309 310 311 311 313 313 314 315 317 317 318 319 317 319 319 319 319 320 320 320 322 323 324 325 325 325 326 324 324 324 323 322 320 319 318 321 326 328 329 329 330 330 329 327 326 326 326
300 306 308 310 309 307 310 311 313 314 314 310 307 307 308 308 309 310 310 309 309 310 311 314 313 314 316 318 320 321 321 321 321 322 322 321 321 322 324 324 322 322 322 326 324 322 319 317 316 316 317 319 324 327 329 330 330 328 327 327 326 326 326
307 309 308 309 307 305 308 311 311 313 316 311 308 309 309 308 309 310 309 309 308 308 308 309 311 311 311 313 314 313 315 320 323 324 324 324 323 325 325 322 321 321 322 323 322 318 316 316 315 316 316 318 322 325 327 328 328 328 327 327 325 325 325
302 306 306 306 306 306 307 307 308 310 315 312 310 309 309 309 309 309 308 309 309 308 307 307 308 310 309 310 311 311 311 313 321 326 326 327 328 324 323 322 320 320 320 321 317 316 316 317 318 319 318 318 319 320 322 323 325 325 326 326 325 325 325

ECMWFFLT2_sfc_thetae_015.txt.gz
Theta_e
306 307 309 308 310 299 304 305 302 305 312 308 306 303 302 303 302 300 309 307 310 315 315 318 321 321 321 325 323 323 325 327 330 329 330 331 332 334 336 338 339 342 344 345 345 346 345 346 348 349 353 354 354 354 355 357 358 360 360 360 360 361 362
305 309 310 309 309 310 305 301 306 308 310 311 307 298 302 299 296 301 304 303 306 305 303 323 318 318 319 322 323 322 325 327 327 327 330 331 331 333 337 340 342 343 343 344 344 345 346 346 348 350 354 355 355 356 356 356 358 358 359 360 359 360 361
306 306 307 306 309 311 307 306 312 304 300 300 311 305 296 295 295 297 302 305 305 307 306 314 315 317 319 323 326 322 322 324 325 327 330 332 333 333 335 337 340 341 342 343 345 345 346 348 351 353 354 353 354 356 356 355 356 357 359 359 360 360 361
305 305 305 298 302 306 305 309 307 310 308 306 302 303 308 302 297 296 298 301 300 310 311 313 312 320 326 323 325 321 322 324 325 327 328 331 332 333 334 335 337 340 341 342 343 344 345 347 350 351 351 351 351 353 355 355 356 359 359 359 360 357 357
303 299 302 300 303 301 302 304 303 305 306 308 309 307 303 300 299 298 297 297 303 311 317 315 318 320 324 323 322 329 325 325 325 327 328 331 333 333 334 335 337 338 340 341 343 345 346 348 350 350 349 350 351 352 353 354 355 356 356 358 358 357 356
299 301 305 305 305 305 304 303 303 304 303 301 298 298 304 304 301 297 298 296 307 312 319 320 320 323 322 324 326 326 327 326 327 327 329 332 333 335 336 336 337 338 340 342 343 345 347 347 347 348 349 350 351 351 352 353 353 354 353 356 357 356 356
301 304 306 307 307 307 306 306 304 307 306 306 302 295 300 302 303 305 306 300 304 317 319 319 322 322 320 322 323 324 325 328 327 328 328 332 335 335 335 336 337 338 341 343 344 346 348 348 349 348 349 349 350 351 352 353 352 353 354 355 356 356 354
306 307 306 306 305 305 303 305 307 306 304 305 304 304 309 302 304 301 301 299 304 318 327 323 320 325 324 326 321 324 324 326 327 327 327 330 334 336 336 338 338 340 342 345 347 348 349 350 350 349 349 350 350 351 352 352 352 353 354 355 353 354 353
299 301 304 303 305 304 302 302 305 306 307 307 308 310 311 303 305 303 301 295 302 316 325 324 321 318 317 319 321 324 324 328 327 328 329 331 335 337 335 337 340 342 341 344 347 348 350 351 349 351 350 350 350 351 351 352 353 354 355 355 353 352 352
290 290 291 294 298 300 303 305 304 305 305 305 305 301 305 297 308 306 301 300 310 318 322 321 322 322 321 321 321 323 325 328 327 328 329 333 335 337 337 339 340 340 343 346 348 349 350 350 349 351 352 350 350 351 352 353 353 354 354 354 352 350 349
296 299 304 309 307 304 300 302 303 303 304 306 307 309 304 299 304 304 305 308 309 313 314 318 319 323 320 320 324 323 325 327 329 333 333 331 335 336 335 338 340 345 346 345 347 350 349 348 350 350 349 349 350 352 353 352 353 353 355 353 352 349 348
305 305 305 307 305 302 303 302 302 304 304 304 304 303 300 311 303 297 307 314 308 311 316 319 321 322 326 328 330 327 329 330 329 330 335 335 332 334 337 338 339 341 344 347 347 348 348 348 351 350 350 350 351 353 352 352 352 353 354 353 351 349 348
305 305 305 306 305 304 304 304 304 303 304 304 302 305 306 312 302 299 309 314 313 312 313 318 321 324 326 324 328 328 329 330 331 332 330 329 329 332 333 337 341 342 343 346 347 347 348 349 349 350 350 351 352 354 352 353 352 352 355 354 351 348 347
303 304 304 305 304 304 304 304 304 305 304 304 304 305 307 308 308 308 311 316 312 313 314 317 321 325 324 328 330 328 326 325 330 329 331 328 329 330 332 336 337 342 343 345 347 348 350 349 350 349 350 352 351 350 350 351 352 352 356 355 351 348 346
301 303 304 304 303 303 302 304 304 305 305 305 305 305 306 309 307 308 309 316 315 316 320 321 326 333 324 324 321 323 327 328 328 328 328 329 329 330 334 338 338 340 343 344 346 347 348 349 349 350 351 351 351 349 350 350 352 353 355 355 352 349 347
300 303 302 302 303 302 302 302 303 304 303 302 304 304 308 307 308 311 309 309 310 317 320 320 322 322 323 322 326 327 328 327 330 329 329 330 332 332 333 336 337 339 340 342 344 345 345 347 350 350 352 351 350 349 350 350 350 352 353 354 351 351 349
300 304 303 302 302 301 298 299 302 305 304 305 306 306 309 308 309 307 306 306 314 318 321 319 320 318 321 323 324 328 329 332 330 330 331 332 332 333 337 338 337 336 336 339 343 343 344 345 347 349 352 349 350 351 351 351 352 352 351 352 353 351 349
301 304 302 302 298 292 294 306 308 307 305 305 304 303 305 309 311 310 313 314 317 320 321 317 319 320 322 327 329 332 333 333 331 330 333 333 333 334 335 335 335 337 339 339 341 343 346 347 346 348 350 349 351 351 351 354 352 353 353 353 353 351 349
300 302 301 297 292 295 308 313 314 309 308 308 306 307 308 309 311 314 314 316 321 322 319 321 321 323 328 325 322 323 325 330 332 333 331 334 336 335 335 336 335 340 341 343 342 342 341 341 345 347 347 349 351 350 352 352 353 355 354 353 352 350 348
303 300 300 292 295 307 312 311 314 312 309 309 308 306 311 314 311 314 313 316 318 322 322 321 325 325 321 322 325 326 326 326 327 327 329 331 332 333 334 338 340 342 338 340 338 341 342 343 343 344 346 347 347 347 350 351 351 353 353 352 350 349 347
298 300 299 298 308 305 308 307 309 310 308 306 305 301 306 314 316 315 314 316 318 320 319 320 320 320 319 321 324 321 322 326 326 326 328 329 331 333 338 337 339 343 343 342 341 346 344 343 345 344 346 346 346 347 347 349 352 350 351 350 349 348 346
303 299 297 298 298 295 304 312 315 316 314 316 317 313 310 318 318 318 318 318 320 320 320 319 320 322 319 316 319 323 321 323 324 326 328 329 331 334 335 340 341 343 343 345 347 344 345 344 345 346 346 346 349 349 348 350 349 349 348 348 348 348 346
303 301 297 296 295 300 313 312 313 315 315 315 317 309 304 318 318 318 318 318 320 321 320 321 321 317 314 315 324 322 323 323 324 325 327 329 332 335 337 338 339 340 345 346 343 348 346 343 344 347 348 348 348 349 349 347 347 347 347 348 348 347 346
303 302 298 297 302 302 311 312 313 314 316 315 312 300 302 317 317 319 318 317 319 319 322 321 320 317 313 318 322 320 322 324 326 330 330 332 334 335 336 339 344 347 347 346 345 344 345 346 346 349 350 350 351 350 347 346 346 346 348 349 349 348 347
303 301 301 303 306 314 312 312 313 314 315 312 304 297 310 317 318 318 319 317 319 321 320 320 319 318 322 321 322 324 326 329 332 336 338 339 340 338 338 339 342 342 342 342 341 342 344 345 344 346 348 349 348 349 348 347 346 347 347 348 347 346 346
302 304 299 300 306 311 311 314 313 316 310 302 303 316 315 318 317 317 317 317 319 322 323 323 321 320 323 325 327 328 329 331 334 335 335 335 336 338 340 342 340 340 342 344 342 342 345 345 345 345 347 346 346 346 346 346 347 346 347 347 346 345 345
304 304 301 297 293 311 313 311 314 316 309 312 315 317 318 319 319 319 320 320 321 322 320 322 322 323 324 326 328 330 332 334 335 336 336 336 336 337 338 338 338 338 339 339 338 338 339 341 343 343 346 345 345 345 344 346 345 346 346 346 345 345 344
304 302 299 297 308 311 314 311 307 314 316 318 321 319 317 320 320 320 320 322 323 323 322 321 322 324 326 327 328 328 329 331 334 336 338 338 336 333 333 333 335 337 337 337 337 339 339 340 340 341 345 345 344 343 344 345 344 345 346 346 345 344 343
308 307 312 315 316 315 314 313 313 314 316 317 319 320 319 318 319 323 321 322 323 324 323 323 323 322 323 323 323 324 325 327 329 330 334 336 336 335 334 332 336 336 337 336 335 336 337 338 340 341 344 344 343 343 343 343 344 344 345 345 344 343 342
313 313 314 317 316 313 313 314 315 315 316 317 318 317 316 317 319 321 321 322 324 325 328 324 325 323 323 322 322 323 325 326 329 334 334 334 336 335 336 338 339 338 339 342 341 338 338 339 340 341 342 344 342 344 342 343 344 345 345 344 343 342 342
307 301 316 312 311 312 312 313 315 316 316 317 319 319 319 319 319 320 321 322 323 325 327 326 324 322 322 323 326 329 330 329 331 332 335 336 337 338 336 336 337 338 332 333 340 340 338 337 338 338 339 340 344 343 341 343 344 345 344 343 341 342 340
310 310 312 312 315 313 314 313 313 313 314 315 317 318 319 320 320 320 322 323 323 324 324 327 325 324 326 326 325 324 326 328 330 331 333 335 335 336 337 337 338 337 337 337 337 337 338 338 338 338 338 339 340 340 339 339 340 343 342 340 339 339 339
308 312 313 315 317 315 312 314 313 314 314 315 315 317 316 316 316 316 318 320 322 324 325 328 328 327 328 329 329 326 328 330 330 331 333 335 335 336 335 336 338 337 336 336 336 335 335 336 336 337 338 337 337 339 337 339 341 341 339 339 339 338 337
305 306 308 313 306 308 310 310 313 314 315 314 313 313 313 314 314 313 313 314 315 316 318 320 322 323 325 328 331 330 331 332 334 336 336 337 337 337 338 337 337 338 337 337 337 337 337 335 335 336 337 338 337 336 337 338 340 340 339 337 337 336 336
303 308 312 312 314 312 314 315 316 315 315 314 313 312 312 313 314 314 313 312 313 313 314 316 316 317 318 319 322 323 327 331 334 336 337 337 336 335 336 337 337 337 337 337 336 335 333 331 331 331 333 334 337 336 338 339 339 340 339 337 335 335 335
305 308 309 312 314 310 313 314 315 316 319 315 312 313 314 314 314 314 313 314 313 313 314 314 316 317 317 318 318 319 320 322 327 331 334 335 335 334 334 334 335 335 335 335 334 331 328 328 328 330 330 333 336 336 338 339 340 340 339 337 336 335 336
304 309 310 311 310 309 311 312 313 318 319 314 315 316 314 313 315 316 315 315 315 313 314 314 315 317 317 316 318 319 318 319 322 325 330 332 331 332 331 332 333 334 334 333 329 327 326 328 328 330 331 333 336 336 339 340 339 339 339 338 337 336 336

ECMWFFLT2_sfc_thetae_021.txt.gz
Theta_e
312 311 312 311 312 301 308 310 305 309 316 313 308 309 310 310 306 304 312 310 313 318 319 321 323 323 324 325 324 324 326 326 329 328 329 332 334 335 337 339 345 347 346 350 350 352 352 353 354 354 357 358 360 360 362 366 368 370 369 371 371 370 370
313 315 313 312 312 312 311 305 308 315 318 315 310 303 306 304 301 304 308 306 309 309 306 319 320 320 320 323 323 324 325 326 325 326 328 332 335 336 338 343 348 348 347 348 350 351 352 353 355 357 360 360 361 361 364 366 368 369 370 371 371 371 370
314 315 313 310 312 314 309 308 316 307 303 303 309 308 300 300 299 302 306 308 308 310 311 317 317 318 319 322 324 323 322 323 324 326 327 331 337 340 341 342 346 347 346 347 350 349 350 354 359 360 359 360 360 362 365 365 367 367 369 369 371 371 371
313 313 310 302 305 311 312 313 311 314 310 307 305 307 308 307 301 301 302 306 305 313 314 317 318 320 321 321 322 322 323 323 324 326 326 328 335 339 340 344 345 347 347 347 349 349 350 353 358 358 358 359 359 360 364 364 365 368 369 368 370 370 370
311 305 308 305 306 304 305 305 305 310 310 312 312 311 307 305 303 302 302 301 307 314 319 318 319 321 322 322 321 322 323 323 324 326 326 329 333 338 340 343 346 347 348 349 349 350 350 352 356 356 357 358 358 358 360 360 362 363 364 364 367 370 370
305 306 312 310 309 309 307 305 304 307 306 305 302 301 311 308 304 300 301 301 311 316 320 320 320 322 322 324 323 322 323 323 327 325 327 329 329 340 343 341 344 347 349 350 351 351 349 349 352 354 355 356 354 355 357 357 357 360 357 361 365 370 370
306 309 312 313 313 312 310 309 306 308 308 310 305 298 303 308 308 310 308 304 308 320 322 322 322 322 322 324 323 323 324 325 326 327 326 328 333 338 342 342 340 343 350 351 351 353 351 348 351 353 352 350 349 351 353 355 353 356 355 356 362 370 370
311 312 313 314 313 311 308 309 310 308 305 307 308 307 309 306 308 305 305 303 307 318 325 324 322 326 324 324 324 324 324 324 325 326 326 332 334 344 344 341 336 341 348 353 355 355 355 353 354 353 351 348 347 348 349 352 351 352 353 353 358 367 369
304 307 309 308 311 310 307 306 309 310 309 309 310 311 312 306 306 307 304 300 306 316 322 323 323 322 322 322 323 324 324 325 325 326 328 332 337 346 344 344 344 346 346 352 357 358 360 358 350 355 351 346 345 347 348 349 351 350 352 353 356 364 366
295 296 297 299 302 304 307 308 308 309 308 308 306 302 306 300 309 310 305 305 312 317 322 321 321 321 323 323 324 324 325 326 325 325 327 341 341 348 349 348 344 344 352 358 362 364 364 357 351 359 357 347 344 347 349 350 350 351 351 351 353 360 365
303 305 309 311 310 308 303 305 306 306 308 309 308 307 303 301 306 306 309 311 311 314 316 318 319 320 320 321 323 322 323 324 325 332 338 337 344 349 348 348 346 354 360 359 360 363 358 354 354 355 353 350 346 353 351 349 349 352 353 353 355 357 364
310 311 310 311 311 308 307 306 306 307 307 307 307 304 302 311 305 300 309 314 310 311 315 317 319 320 322 322 324 323 324 324 325 333 349 350 346 350 349 348 348 350 355 357 358 359 358 355 356 356 355 354 351 353 351 350 349 350 353 355 354 355 362
310 310 311 311 311 310 310 309 308 307 307 306 305 307 308 310 304 301 310 313 311 312 314 317 319 321 322 322 323 323 324 324 326 333 336 340 344 348 347 348 351 352 350 356 357 356 357 357 357 357 356 356 358 357 355 355 349 349 355 357 357 356 361
309 310 310 311 309 309 309 309 309 309 308 307 306 306 308 307 309 310 310 313 311 313 315 316 318 321 323 323 324 325 325 323 328 326 327 325 328 339 347 349 349 353 354 356 359 359 361 358 358 356 357 359 356 356 356 354 354 351 356 360 363 360 361
308 310 311 310 310 309 308 309 310 310 310 309 308 307 307 309 308 308 308 311 311 316 319 318 320 322 322 324 323 322 325 324 323 324 323 324 325 327 334 354 351 354 356 358 360 360 360 358 358 358 359 359 358 356 356 356 356 353 354 364 362 363 367
306 310 310 311 310 309 308 307 309 309 309 308 309 307 309 307 307 308 307 306 307 313 317 320 321 321 321 320 322 324 323 323 325 325 324 325 327 327 328 332 350 355 356 359 360 359 358 357 359 360 361 359 357 355 357 356 356 355 357 361 362 368 368
305 309 310 309 309 308 304 305 307 309 310 311 311 311 312 310 309 306 304 306 312 315 317 316 318 320 320 321 320 322 325 332 326 326 325 325 325 328 339 339 350 354 355 357 362 360 359 357 359 360 361 358 358 358 360 360 360 356 357 361 367 368 369
304 308 309 310 306 298 300 310 314 312 309 310 309 309 310 312 312 310 312 312 315 315 315 314 316 317 320 322 326 326 326 327 330 326 326 325 325 326 326 330 345 356 357 357 361 362 361 360 360 361 364 360 360 359 360 361 359 361 364 365 367 368 370
305 309 310 304 298 299 312 314 315 315 313 313 311 312 312 313 315 314 313 313 314 316 316 317 317 320 320 321 322 323 324 327 325 326 324 327 328 329 329 335 331 354 360 359 363 363 360 358 360 361 361 361 362 358 360 359 363 367 364 365 368 370 370
310 308 305 296 298 311 313 314 315 316 315 314 312 310 312 314 314 315 314 315 315 317 317 318 320 321 319 319 323 325 324 323 323 322 323 325 326 326 327 342 353 361 355 358 360 362 361 358 359 359 360 359 359 356 359 361 361 362 365 366 368 370 369
302 304 304 303 311 309 311 311 313 313 311 312 310 306 310 315 316 316 315 316 317 317 317 317 319 321 320 320 320 322 321 322 323 323 324 323 327 327 330 335 338 354 362 361 361 364 359 358 359 358 359 359 357 356 359 360 363 361 363 366 368 370 369
308 303 302 302 301 299 306 316 320 320 319 319 319 316 309 316 317 318 317 316 317 318 318 318 319 321 318 315 317 321 322 323 324 324 324 324 325 326 325 341 338 355 361 360 361 360 358 356 358 360 360 359 358 359 360 361 362 362 363 364 368 370 370
306 304 301 300 299 304 317 317 318 320 321 319 319 312 306 316 317 318 317 316 317 317 317 318 320 316 312 312 318 324 325 325 325 324 323 322 323 326 328 335 345 358 360 359 360 361 358 356 359 361 360 360 359 359 361 360 361 362 363 365 368 369 370
305 304 301 300 305 306 315 318 317 318 321 319 314 301 303 316 329 331 330 328 328 328 320 319 318 315 311 312 319 323 326 327 329 330 331 332 331 330 333 344 357 360 363 362 360 355 355 359 361 364 359 361 360 359 358 360 360 361 363 366 368 371 371
303 302 304 306 309 318 319 318 319 320 320 316 306 299 312 324 328 328 329 327 327 330 329 324 315 319 320 321 325 325 326 325 327 327 329 333 334 333 336 346 355 357 356 357 356 354 358 364 360 362 359 357 359 360 361 361 360 361 365 368 370 371 370
302 304 302 303 308 319 320 321 320 322 315 304 303 320 327 327 325 329 328 327 331 330 331 332 323 320 322 323 323 325 332 334 338 337 336 337 336 338 344 352 354 355 351 357 356 355 361 361 359 356 361 361 360 360 359 359 362 363 368 370 370 369 368
305 306 303 300 295 316 321 321 318 321 312 314 323 325 326 324 325 327 328 329 330 331 329 332 333 332 321 321 322 325 332 338 339 339 340 341 341 346 352 352 354 352 353 352 352 354 353 352 355 358 362 362 361 361 361 363 365 368 369 369 368 367 366
301 301 299 300 311 320 321 319 313 323 322 322 325 324 322 326 327 328 329 330 334 333 331 330 332 332 330 327 328 331 338 342 342 342 345 349 353 352 350 350 350 349 349 350 352 355 354 360 364 366 366 363 363 364 365 368 368 368 368 368 367 364 363
307 305 307 320 321 321 321 322 321 322 324 326 326 327 327 327 328 332 329 330 333 334 334 332 333 330 330 333 336 338 340 342 343 346 348 349 348 347 348 348 355 355 356 357 355 359 360 364 364 365 366 364 363 362 363 364 363 364 364 364 362 360 359
320 320 321 321 321 320 321 322 323 323 323 326 328 328 329 329 331 331 330 330 332 334 337 334 335 334 333 334 332 337 336 339 343 345 345 346 347 349 350 351 352 352 353 355 355 354 355 356 359 361 364 364 361 360 362 361 362 362 360 358 356 355 355
310 304 317 318 319 321 321 321 322 324 324 325 327 329 330 330 331 331 331 333 333 332 333 335 333 331 332 331 337 340 341 340 340 340 343 345 346 347 347 349 350 349 348 347 347 349 350 353 354 355 359 360 361 361 360 359 360 360 357 354 352 352 353
311 313 317 318 321 322 322 322 321 320 322 324 327 328 328 329 330 332 332 332 332 333 333 335 336 335 337 337 338 338 339 341 344 345 345 343 342 345 346 345 344 343 342 343 344 345 346 349 352 353 353 355 357 357 355 355 355 355 353 353 352 353 352
315 318 318 319 321 320 320 321 322 323 323 323 323 324 325 325 327 328 330 332 335 334 334 335 333 332 333 335 336 333 334 335 336 338 341 346 351 352 349 348 349 349 349 347 347 345 345 346 346 345 345 346 348 350 352 355 357 355 352 350 353 351 349
308 310 316 316 311 311 318 319 320 321 322 322 321 322 321 322 324 325 324 325 327 329 333 334 335 334 335 337 338 337 338 338 340 340 339 341 343 346 349 350 352 352 352 351 349 348 348 348 347 347 347 348 350 350 352 354 356 355 353 352 351 347 346
310 319 320 322 321 319 319 321 322 323 322 321 319 319 320 320 321 321 321 321 322 323 324 327 328 330 332 335 335 335 337 338 340 339 340 339 339 340 342 343 345 347 348 349 348 347 347 347 346 345 346 346 349 349 352 355 354 354 353 350 347 345 344
317 320 320 321 320 316 317 319 321 322 323 320 318 319 320 319 320 321 320 320 320 321 323 323 324 324 326 328 330 332 334 335 337 338 339 339 340 341 343 345 345 346 346 347 347 346 346 346 345 346 345 347 350 351 353 353 354 354 353 348 345 343 343
317 320 320 320 318 318 319 320 320 321 321 320 318 318 319 319 320 320 320 319 319 319 319 321 323 323 322 322 325 327 329 330 333 335 336 337 336 337 337 340 343 344 344 344 346 348 348 348 347 347 347 349 351 352 354 353 353 352 351 348 343 341 342

ECMWFFLT2_sfc_thetae_024.txt.gz
Theta_e
313 312 313 311 312 300 306 307 302 305 312 309 305 306 308 308 305 302 310 308 311 317 318 320 322 322 323 324 324 324 326 328 330 328 329 331 331 333 334 336 340 343 344 347 347 350 350 352 352 352 355 358 360 360 363 365 366 367 367 366 367 368 368
313 316 314 313 312 311 308 302 305 311 313 312 307 300 304 302 299 302 306 304 307 308 305 318 319 319 320 322 323 323 325 327 327 327 330 331 331 334 338 341 346 345 344 347 347 348 349 351 351 353 356 358 360 361 363 364 366 366 366 366 366 367 368
313 315 313 310 313 313 307 306 313 304 300 300 306 305 297 297 296 300 305 307 307 309 309 314 315 317 318 321 324 323 323 324 325 325 332 333 335 335 336 336 344 346 344 345 349 348 349 351 354 355 357 357 359 361 361 362 364 365 366 364 364 367 368
313 312 310 302 306 311 312 312 308 312 308 304 301 303 304 304 299 299 301 305 304 312 312 315 315 318 320 320 322 321 322 323 325 326 328 334 334 334 334 334 337 343 344 343 344 348 349 351 354 354 354 354 354 357 360 361 363 367 367 365 366 366 367
312 304 308 305 306 304 305 305 304 305 306 310 308 307 304 302 301 300 300 299 305 312 317 316 318 321 322 322 322 324 323 324 324 325 326 333 333 334 333 334 335 337 340 341 343 348 350 351 353 353 353 352 352 354 357 359 362 364 365 365 365 366 366
306 307 311 310 310 309 306 304 303 304 303 303 299 298 308 306 303 298 300 299 308 314 318 320 320 323 320 321 323 324 324 324 326 327 327 330 331 335 335 333 335 336 339 342 344 346 350 350 351 352 353 352 352 352 355 359 361 363 363 364 365 365 366
307 310 313 314 314 313 311 308 305 307 306 306 303 295 301 306 306 308 306 302 305 318 321 323 322 322 321 323 323 323 323 324 325 326 326 335 333 336 334 335 333 333 339 344 346 345 346 349 351 352 353 352 351 352 356 358 360 362 363 364 364 367 367
311 313 315 315 314 313 309 309 309 307 303 305 304 304 306 303 305 303 303 301 305 315 327 325 322 329 322 324 323 326 323 323 325 326 326 334 332 335 335 335 334 340 343 346 346 344 343 345 350 353 353 353 352 354 355 356 358 361 362 362 363 367 367
304 306 310 309 312 311 307 306 308 308 308 307 307 308 311 303 303 304 302 298 304 314 323 332 323 321 320 321 322 323 323 325 324 326 329 339 337 338 337 339 339 340 342 343 346 347 347 347 350 355 356 355 354 354 354 356 358 361 360 360 361 364 364
295 295 297 299 302 305 308 309 308 309 307 306 304 300 304 299 309 309 303 303 312 316 322 321 322 321 325 323 322 323 324 329 324 325 336 337 342 340 341 342 340 340 341 346 348 350 354 354 353 356 357 356 355 355 353 355 355 356 357 355 358 362 364
301 304 308 310 310 308 304 306 307 307 308 308 307 305 302 298 305 305 309 310 311 314 314 318 317 319 320 319 322 322 324 324 336 350 344 344 344 342 343 343 341 347 350 349 352 357 359 354 353 355 356 355 354 355 354 355 354 353 355 354 355 359 363
307 309 310 310 310 306 307 306 305 307 307 307 306 302 300 309 305 297 310 320 310 310 314 318 319 319 321 323 325 323 324 330 328 328 341 348 343 350 352 350 354 353 358 351 353 357 359 355 353 354 355 354 355 355 352 351 351 351 352 353 353 357 362
308 308 310 312 310 309 308 308 307 306 307 306 304 306 306 310 302 299 310 317 314 313 313 315 319 325 324 320 322 323 325 325 331 351 340 338 338 347 348 351 355 354 361 365 357 357 359 357 353 352 352 353 355 354 351 349 348 350 352 353 353 355 361
308 308 308 310 310 309 309 308 308 307 307 306 306 306 307 307 309 310 309 317 313 311 313 315 317 322 321 322 326 325 325 323 337 336 335 327 334 345 346 352 354 360 362 367 367 364 364 359 356 352 352 354 353 351 348 348 348 349 352 352 353 354 360
307 309 310 309 309 309 308 308 309 309 308 307 307 306 307 308 306 307 307 311 311 313 319 318 319 321 321 323 321 320 325 324 323 324 323 325 325 329 342 352 351 356 357 364 366 366 364 361 359 354 354 355 356 350 347 345 348 350 354 354 354 354 360
304 308 309 308 309 308 308 307 308 308 307 306 307 305 308 306 307 308 306 307 308 313 316 316 319 320 320 319 322 323 326 323 326 325 324 325 330 332 336 350 350 353 355 358 361 362 361 362 362 358 358 358 356 350 347 345 345 348 354 355 354 355 361
303 307 308 307 308 307 303 304 307 309 309 310 310 312 311 310 309 305 304 305 313 318 319 315 316 315 318 319 318 320 322 331 327 326 326 326 327 331 343 351 350 350 350 355 359 358 357 358 360 360 361 359 358 355 352 349 349 347 351 355 358 358 364
302 306 307 308 304 298 299 310 312 311 309 310 309 308 310 312 311 308 310 311 316 317 315 314 316 315 318 322 328 329 331 336 345 334 329 327 326 327 336 350 352 351 353 353 358 358 359 359 357 358 360 359 360 359 358 358 353 351 351 360 361 360 366
301 306 305 301 296 297 311 315 316 315 313 312 311 311 312 313 314 313 312 312 314 317 316 317 319 323 324 324 322 321 321 326 327 330 328 335 331 329 332 349 350 355 356 359 362 362 358 357 359 359 360 360 361 360 360 359 360 358 357 364 362 363 367
305 303 302 293 295 309 312 313 315 317 315 314 312 310 312 313 313 314 314 318 316 317 317 316 320 324 318 317 320 327 323 323 324 322 323 326 327 331 332 333 344 359 358 359 359 362 360 362 358 357 357 357 356 355 357 358 359 361 365 368 365 366 369
300 301 301 301 310 308 310 311 312 313 312 311 309 305 309 314 315 314 316 319 318 319 317 316 316 319 317 318 319 319 319 324 323 322 323 324 326 327 332 333 346 363 363 363 361 367 364 358 357 355 357 357 357 357 355 356 360 361 367 368 366 368 371
305 302 300 300 300 298 305 314 319 320 319 318 317 315 311 319 319 319 318 319 320 322 321 323 322 318 315 313 315 320 319 320 320 321 322 323 324 325 328 331 344 366 364 365 366 365 363 360 358 359 359 359 360 359 356 358 359 360 369 367 368 370 372
305 302 299 298 297 302 312 314 319 319 320 318 318 312 306 318 322 326 322 319 322 322 321 324 324 322 317 311 315 321 321 320 320 320 320 322 321 323 326 327 328 362 362 361 364 366 364 359 359 361 361 360 359 358 358 356 357 359 367 368 370 371 371
305 303 300 299 306 304 315 318 318 318 319 319 314 301 302 327 327 324 326 324 322 325 328 326 324 324 317 319 322 319 321 322 323 325 326 325 324 324 326 326 327 346 363 362 366 363 361 361 360 363 362 361 359 358 359 357 357 360 365 370 372 372 371
303 303 301 303 306 314 320 318 319 320 319 316 304 298 307 325 325 324 325 323 325 328 328 328 322 326 327 327 326 324 325 321 322 327 330 331 329 331 325 324 333 350 362 362 363 360 362 363 360 361 360 360 358 359 360 359 358 360 367 373 373 372 372
301 303 300 301 305 313 319 320 319 320 314 303 303 322 326 326 322 323 323 325 327 328 328 329 329 329 329 329 325 324 324 324 333 333 334 337 339 334 350 364 353 361 358 362 361 359 366 364 361 362 362 361 360 362 362 362 363 365 371 373 373 373 371
303 303 300 298 293 316 319 319 317 319 310 313 323 325 325 323 324 324 325 326 327 327 327 330 331 330 328 327 327 335 333 337 331 339 341 347 346 352 358 361 357 356 358 360 356 357 360 359 359 363 364 363 362 362 363 366 367 370 372 373 372 371 369
298 298 297 297 307 317 321 318 312 317 318 324 327 323 321 326 326 327 325 329 331 331 330 328 329 331 330 332 336 339 338 337 340 341 347 356 353 348 350 353 354 353 358 357 353 355 355 360 363 364 367 361 362 363 365 369 370 371 372 371 370 367 364
303 302 305 314 321 321 322 320 320 323 326 326 325 326 326 326 327 330 328 328 329 330 331 332 332 330 330 329 332 333 335 334 338 340 338 340 344 344 350 350 358 355 355 356 353 359 366 367 369 368 366 363 363 365 368 370 370 370 369 367 365 362 362
319 319 319 320 321 321 320 323 323 322 322 325 327 328 327 327 329 329 327 327 327 330 334 334 333 332 332 333 336 336 335 334 338 344 339 340 342 338 340 350 354 354 352 356 360 360 367 369 370 369 369 368 364 366 369 368 369 368 366 363 361 360 360
308 303 319 318 318 320 320 320 322 323 323 324 327 327 328 328 328 330 331 331 331 330 335 336 337 337 336 337 339 340 341 337 337 342 347 347 346 346 346 356 357 354 349 351 354 359 361 365 365 365 365 365 365 367 367 366 365 365 362 361 358 358 357
309 310 319 319 320 321 321 322 320 320 322 324 326 327 327 328 330 332 332 332 333 334 333 335 335 335 336 337 339 339 342 345 346 347 349 350 348 351 358 358 356 358 357 357 358 360 361 363 363 361 361 361 362 362 363 363 362 361 358 357 356 355 354
313 314 317 320 320 321 319 320 321 321 322 323 324 325 325 326 327 327 328 331 331 332 332 334 334 333 333 335 336 335 338 342 345 347 350 351 351 350 348 349 348 347 351 352 352 352 354 357 356 356 355 354 355 358 359 359 359 356 353 351 353 352 351
306 308 315 318 311 310 315 318 319 320 321 321 320 321 322 323 323 322 321 322 324 325 329 331 332 332 332 333 333 334 335 339 342 344 345 346 346 348 351 350 348 346 347 347 346 345 347 350 351 351 352 353 354 354 356 356 356 354 353 351 349 348 348
306 314 317 321 317 315 317 318 320 321 321 320 319 318 318 319 319 319 319 319 319 319 321 323 328 333 333 333 335 336 336 337 340 342 344 342 342 345 347 345 346 346 347 348 348 348 348 348 347 346 348 349 352 353 355 355 354 355 354 350 347 346 345
316 319 321 321 317 313 315 318 320 320 322 321 319 319 320 319 318 317 317 317 316 317 318 319 320 324 328 330 332 333 334 332 335 336 337 339 340 342 344 344 346 346 346 348 348 349 350 350 351 351 348 351 355 354 355 355 356 356 354 350 347 345 344
315 321 319 319 317 316 317 317 318 319 320 320 318 318 319 319 319 320 319 318 318 316 314 315 319 321 322 324 327 329 329 330 334 338 336 336 338 339 340 342 345 347 347 346 348 349 349 350 350 350 351 352 354 353 356 357 356 356 353 349 344 343 342

ECMWFFLT2_sfc_thetae_027.txt.gz
Theta_e
309 308 311 310 310 296 300 301 297 300 304 303 299 302 303 303 298 295 306 304 306 309 312 312 316 317 318 320 321 322 322 323 325 326 327 328 329 330 330 333 334 337 339 339 341 343 343 346 347 348 349 350 351 353 355 356 357 358 358 358 359 359 360
309 311 311 311 311 309 301 298 301 307 308 306 300 293 296 294 290 295 301 298 298 302 297 310 312 314 316 317 318 321 321 322 323 326 327 328 329 331 332 333 335 336 339 341 341 344 345 346 347 348 349 351 353 355 355 356 357 357 358 358 359 359 359
309 311 310 308 310 311 304 300 308 299 294 295 299 301 290 290 291 292 297 300 301 301 303 308 308 312 313 315 317 318 319 322 324 326 327 328 330 331 332 332 333 335 336 341 341 342 346 347 348 349 350 352 353 355 357 357 357 358 359 360 360 360 360
309 309 306 299 302 307 309 308 304 306 302 297 295 297 298 297 291 293 293 298 294 305 304 309 310 313 314 315 316 317 319 322 324 326 327 328 329 329 331 331 332 335 337 339 342 342 344 346 347 349 350 352 353 355 357 357 358 359 360 359 360 359 360
308 301 304 301 302 300 301 301 300 301 301 303 301 301 298 293 292 290 291 290 297 304 310 310 311 313 315 316 317 318 319 322 323 324 326 328 328 329 330 331 331 333 336 339 341 343 344 347 349 349 350 351 353 355 356 357 357 358 359 360 359 359 360
300 303 308 307 306 305 303 301 300 300 298 294 292 292 301 299 294 289 291 291 301 307 314 316 312 314 316 317 318 318 319 321 322 323 324 327 328 328 330 330 331 333 336 338 341 343 344 347 348 348 349 350 352 353 355 358 358 359 359 360 360 359 360
300 305 310 311 310 309 307 305 302 303 300 298 294 285 292 298 299 301 299 295 296 309 312 313 315 318 318 318 320 319 320 320 322 323 325 327 328 329 330 331 332 335 337 338 339 341 342 344 348 348 348 349 350 352 354 357 358 358 360 361 361 360 360
305 308 310 310 311 309 306 305 306 303 300 300 297 295 299 297 298 294 294 294 297 309 313 315 318 316 317 320 321 320 320 320 321 322 322 326 327 328 330 332 332 336 338 338 338 340 341 342 346 347 348 349 350 352 353 355 357 358 360 361 361 360 359
295 301 304 304 308 308 304 303 304 305 304 303 302 301 305 297 298 298 293 291 295 309 313 312 315 318 317 317 320 321 319 319 320 321 320 327 328 328 329 330 330 333 337 337 337 340 342 344 346 347 348 348 349 350 352 353 355 358 359 361 361 360 359
288 289 291 293 297 301 304 305 304 305 304 302 299 295 295 289 298 300 296 295 301 309 311 312 312 312 314 319 315 321 321 320 320 320 320 328 328 328 328 328 328 330 335 336 337 340 343 344 346 347 347 348 349 349 350 352 353 356 358 360 361 360 359
294 297 300 311 308 302 300 303 304 304 305 305 302 299 294 290 295 299 297 300 302 307 307 309 311 311 311 314 316 319 319 321 323 326 323 328 328 328 327 328 329 332 334 335 338 340 343 344 345 347 348 348 349 348 348 351 353 355 357 359 360 360 359
302 306 306 307 308 304 304 303 303 305 304 303 302 297 295 299 297 289 298 306 302 303 305 308 310 310 311 316 314 314 319 325 330 332 329 334 328 328 329 329 329 331 334 336 338 339 341 343 344 347 349 349 349 348 348 349 352 355 358 359 359 359 359
303 305 305 307 307 306 305 305 304 303 304 303 301 300 301 302 296 294 298 305 309 308 307 309 311 313 312 313 317 316 316 322 330 332 328 327 328 328 328 328 328 332 333 335 337 339 339 340 341 344 348 349 349 349 349 349 352 355 357 358 358 358 358
303 304 304 305 304 305 305 304 305 305 304 304 303 302 303 302 301 302 302 304 306 310 308 309 310 317 320 321 324 320 317 318 330 330 327 327 328 328 328 329 331 333 335 337 337 339 340 339 339 341 346 349 349 349 349 350 351 354 356 357 356 357 357
301 304 305 305 304 303 302 305 305 305 305 304 304 304 303 304 302 303 303 302 302 308 309 310 312 312 315 318 317 318 322 325 330 327 326 329 336 340 337 334 334 335 336 338 339 340 341 342 341 341 345 349 350 351 351 351 351 353 355 355 354 355 356
300 305 304 304 304 304 303 302 304 304 303 301 302 302 304 302 301 303 305 300 300 305 310 311 311 310 316 315 315 318 320 322 325 325 326 329 333 338 338 339 340 343 343 339 341 342 343 345 345 344 346 348 350 351 352 351 351 352 352 353 352 352 356
297 303 305 304 304 302 299 300 303 305 306 304 305 305 306 305 304 301 298 298 303 306 313 309 307 309 308 311 314 315 315 321 321 319 322 327 330 334 336 337 339 344 349 346 344 345 347 348 347 347 348 349 350 351 351 352 351 350 349 350 350 350 353
298 302 303 304 300 293 295 306 308 307 305 305 303 304 305 306 305 303 304 304 310 315 314 308 307 307 308 309 314 315 314 316 321 321 320 320 325 332 338 339 340 341 346 352 352 348 349 351 350 349 349 349 350 352 351 350 349 348 346 347 348 348 350
296 302 306 298 292 295 310 309 310 310 309 308 307 307 307 308 310 306 306 307 307 307 308 310 310 312 315 317 314 320 322 324 326 324 324 324 326 326 333 337 339 341 342 346 352 352 352 352 352 350 349 349 350 350 350 347 346 345 344 345 346 347 348
300 299 296 290 293 308 310 309 312 315 312 311 310 306 308 311 309 312 313 312 314 316 315 314 315 315 319 317 317 319 322 319 322 321 319 319 323 323 330 339 341 341 341 344 350 352 355 354 353 352 349 350 349 349 349 347 344 343 343 345 346 346 347
293 295 295 295 304 302 306 308 311 309 309 309 308 300 304 313 315 317 317 317 318 320 318 318 319 322 318 310 310 315 316 319 319 315 316 316 317 318 324 341 343 344 344 346 350 352 353 354 353 353 352 351 351 350 348 347 345 342 342 345 346 346 347
298 295 293 293 294 292 299 310 314 316 315 314 313 309 305 319 318 318 317 318 321 321 321 319 321 321 315 312 312 314 315 313 315 314 314 315 316 318 321 337 344 345 345 346 348 351 352 352 353 353 353 352 351 350 349 348 348 345 342 345 348 348 348
301 295 292 291 291 296 306 314 315 318 316 315 314 308 301 318 320 320 319 320 322 323 322 320 320 314 312 312 316 322 323 319 322 321 317 315 313 315 315 318 336 346 347 347 348 350 351 351 352 353 353 352 352 350 350 349 349 349 346 348 351 349 350
300 299 294 292 299 300 311 313 312 314 315 316 310 298 299 316 322 320 320 320 321 323 325 324 320 313 309 312 317 324 323 325 326 324 326 324 319 316 317 318 318 342 350 350 350 352 351 350 352 352 352 352 350 350 350 350 349 349 351 354 354 353 355
300 301 299 299 302 316 319 316 317 315 317 313 299 291 306 321 321 320 321 322 322 322 322 323 320 323 324 323 325 324 324 331 332 335 340 337 332 341 344 338 337 323 349 351 351 353 353 353 353 353 352 351 349 349 350 349 348 350 355 359 358 359 363
299 299 299 298 302 313 317 320 318 317 311 298 297 316 322 325 321 323 324 324 325 325 324 323 323 325 327 327 326 329 329 332 339 340 341 342 345 349 351 350 348 341 327 352 353 354 355 354 353 353 352 350 349 349 349 348 349 352 359 361 363 364 364
300 302 298 295 290 310 316 324 316 316 308 309 319 324 323 324 323 324 324 324 326 328 327 328 328 327 328 329 329 334 335 337 338 338 336 335 338 341 344 346 347 352 348 340 351 355 356 355 354 353 352 350 350 350 349 349 352 358 363 364 365 365 364
295 296 293 292 304 315 321 314 311 320 322 321 325 323 319 323 323 322 322 323 326 330 331 330 330 329 329 330 330 330 331 333 333 333 334 335 336 340 343 347 348 348 345 342 342 341 344 350 354 354 353 350 350 350 350 352 357 363 364 365 365 363 361
305 301 305 310 315 318 317 321 321 321 326 327 325 323 323 322 323 326 323 324 328 332 333 333 334 333 333 334 335 331 330 333 336 336 335 335 335 337 339 344 347 344 342 342 343 344 344 344 344 353 355 352 350 349 352 357 361 364 364 364 363 361 361
314 315 316 316 315 317 323 322 323 322 323 325 325 324 324 325 326 329 328 330 331 332 333 331 331 332 334 337 339 340 340 340 341 343 345 343 341 339 339 344 348 345 342 351 346 340 341 344 346 347 354 354 350 351 358 360 364 365 364 362 360 359 359
303 297 314 313 314 317 316 318 321 324 324 324 326 325 326 327 329 329 330 329 330 330 330 329 328 329 332 333 335 337 339 341 343 344 341 342 344 344 342 343 347 350 347 351 354 357 356 360 359 358 358 356 356 360 361 364 365 364 362 359 356 356 356
306 307 313 315 318 317 319 318 318 321 321 323 325 325 324 322 321 320 321 324 326 329 328 328 328 328 330 331 331 333 335 338 340 341 342 341 339 338 338 338 340 340 340 339 338 338 337 335 337 342 351 357 363 364 364 365 363 360 356 355 355 355 354
309 314 314 316 317 316 317 318 320 319 319 319 318 319 319 318 317 317 317 318 317 319 324 329 328 327 328 330 331 332 333 336 339 340 341 341 337 336 334 335 336 336 335 335 335 335 335 337 338 338 339 340 342 348 354 357 358 356 353 350 353 353 353
302 305 310 315 306 307 313 316 318 320 318 316 315 315 315 315 315 315 315 315 318 318 318 319 323 323 324 327 329 330 331 332 333 336 338 339 339 338 338 337 335 335 335 335 335 334 334 335 335 337 338 341 345 346 344 344 343 342 342 346 347 349 349
303 315 316 319 316 314 313 315 316 319 321 315 314 313 313 314 314 314 314 314 315 316 316 318 318 318 320 322 325 326 329 331 332 334 334 335 336 339 339 336 334 333 333 335 334 333 333 334 334 334 334 339 342 343 343 344 343 341 341 341 344 344 344
313 318 319 320 317 311 314 316 316 316 318 316 315 315 316 315 314 314 313 314 314 314 315 316 317 317 317 320 323 324 325 328 331 332 332 334 335 337 341 340 337 334 334 337 337 337 339 340 340 340 337 337 339 342 340 341 343 342 343 342 342 342 341
312 321 320 320 317 317 318 317 317 317 317 318 316 316 315 314 315 315 314 314 314 314 314 314 316 317 316 317 321 322 323 324 327 330 333 333 334 334 339 342 341 338 335 335 337 339 340 341 340 340 341 342 343 346 347 349 347 345 343 341 340 340 339

ECMWFFLT2_sfc_thetae_030.txt.gz
Theta_e
306 305 307 306 305 294 296 299 295 296 300 300 294 298 299 300 296 291 295 300 298 302 305 310 314 316 317 318 319 321 321 322 323 324 324 325 326 328 329 330 331 331 333 335 336 336 338 340 341 341 342 344 346 348 350 350 350 351 352 354 353 352 352
306 309 308 308 307 302 296 296 295 300 302 301 296 287 293 291 287 291 296 295 294 298 294 305 309 312 315 316 317 319 321 322 322 323 325 325 325 327 329 330 332 332 333 334 335 336 338 340 341 341 342 344 346 348 350 350 350 350 351 353 354 354 352
306 309 307 305 307 307 302 296 301 299 290 292 293 292 288 286 287 287 292 295 295 297 297 303 306 310 312 314 317 317 319 321 322 323 325 326 327 327 328 330 331 332 333 334 335 336 338 341 342 342 343 345 346 347 350 351 350 351 352 353 354 355 355
305 306 304 297 301 305 307 303 299 302 296 295 291 294 291 291 286 289 288 294 291 300 299 303 306 311 313 314 315 316 318 320 322 323 325 326 326 327 327 329 331 332 334 335 336 336 337 340 341 342 343 345 345 347 349 351 352 352 352 353 354 354 355
302 298 300 299 301 299 300 300 299 300 299 298 298 297 295 290 286 285 287 289 292 297 304 307 306 309 314 315 316 317 319 320 322 324 325 326 327 327 328 329 330 332 334 335 336 337 338 340 342 343 344 344 346 347 349 351 351 351 352 353 354 354 356
295 297 303 304 303 304 302 301 299 299 295 292 291 290 298 294 292 286 287 289 291 301 310 309 309 309 313 316 317 318 319 320 321 323 325 326 326 328 328 329 330 332 333 335 336 338 339 339 342 343 344 345 346 347 349 351 352 352 352 353 354 354 355
298 300 303 307 307 306 305 304 301 302 296 293 291 285 287 294 293 297 293 289 294 303 307 310 311 311 312 315 317 317 319 320 321 323 325 326 327 328 329 329 330 332 333 335 336 337 338 339 342 343 344 345 346 347 349 351 352 352 354 354 355 355 355
301 304 304 304 306 306 304 304 305 302 298 297 294 290 290 291 291 292 291 292 293 300 308 308 309 309 310 314 316 317 319 319 321 322 324 325 326 327 329 330 331 331 333 335 336 337 338 340 341 343 344 346 347 348 349 351 351 353 354 355 356 356 355
292 297 300 299 303 304 301 301 303 303 303 300 297 297 298 294 292 292 290 289 294 300 308 308 309 310 313 312 314 316 316 317 321 323 324 325 327 327 328 329 330 330 331 333 336 337 338 340 342 343 344 345 346 348 350 351 352 354 355 356 356 356 356
286 286 288 290 294 298 301 302 302 303 302 300 296 294 293 287 292 295 290 290 291 300 306 307 309 309 306 309 311 315 318 318 319 323 324 325 326 327 328 329 329 329 330 333 335 337 338 340 342 343 344 345 346 348 350 352 353 354 355 357 357 356 356
293 294 294 298 302 299 298 300 300 301 302 302 300 296 291 291 290 293 292 296 296 300 303 304 305 306 306 307 307 313 315 316 319 321 323 325 326 326 327 328 329 329 329 331 333 336 338 340 342 344 344 345 346 347 349 352 354 355 355 356 357 356 356
299 300 300 302 303 299 301 300 299 301 301 301 299 295 294 295 292 291 294 297 298 298 300 302 304 305 306 309 308 309 313 316 317 318 319 329 325 326 326 327 327 327 329 331 333 335 337 339 342 344 345 346 346 347 348 350 353 355 356 356 356 356 356
301 302 301 302 302 302 300 301 301 300 301 301 299 298 297 297 295 294 295 299 299 299 302 303 303 306 307 306 309 312 315 317 319 322 319 321 322 323 324 325 326 327 329 331 332 335 337 338 340 343 344 345 346 347 348 350 352 354 356 356 356 356 355
300 301 301 302 301 301 301 300 301 301 301 300 301 300 300 298 297 298 298 298 300 301 303 305 306 307 307 309 312 314 315 321 321 324 320 321 322 323 323 324 325 327 329 332 333 334 336 337 339 341 344 344 345 346 347 349 351 353 355 355 355 355 355
298 301 302 302 302 301 300 300 301 302 301 301 301 302 301 301 299 298 297 298 298 301 302 305 306 306 311 312 310 312 318 322 325 324 321 322 323 323 324 325 325 327 329 332 333 334 335 337 339 341 343 345 346 346 347 348 350 352 354 354 355 355 355
294 300 300 301 302 301 299 298 299 299 300 299 300 299 301 299 297 298 298 296 297 299 303 306 308 306 307 308 308 312 315 320 324 322 322 322 322 323 324 325 325 326 328 332 333 334 336 338 339 341 343 344 345 346 346 347 349 351 352 353 354 354 355
291 299 300 300 300 299 296 297 299 300 299 300 302 303 304 304 303 299 296 296 299 302 306 304 306 306 306 306 308 311 313 321 323 322 322 323 323 324 325 325 326 327 329 332 334 335 337 338 340 342 344 345 345 346 346 347 349 350 351 352 353 354 355
292 297 299 300 296 290 292 302 303 303 301 301 299 298 300 303 304 300 302 303 302 302 304 305 304 306 304 306 308 310 311 315 318 321 323 328 327 326 326 327 327 329 331 333 335 336 337 339 341 343 345 346 347 348 348 348 347 348 350 351 352 353 354
292 297 297 295 289 291 301 305 305 305 305 304 302 303 303 303 303 305 305 307 305 305 306 307 305 305 308 310 307 309 312 312 317 318 319 322 326 329 328 328 329 329 331 333 335 336 337 339 340 342 343 346 347 348 348 347 347 348 349 350 351 353 353
295 294 294 289 290 301 307 306 307 310 303 303 306 306 311 314 308 305 309 311 311 310 310 310 308 310 312 314 316 316 315 316 317 315 320 324 324 325 327 329 330 332 333 333 334 336 339 340 341 341 341 344 346 347 348 348 347 347 348 349 351 352 352
292 292 293 292 301 303 305 305 306 306 303 303 303 301 307 315 315 314 313 314 315 315 316 316 317 314 312 311 315 319 319 317 316 316 317 318 320 320 325 332 333 334 336 337 338 338 339 340 341 341 342 342 344 347 348 348 347 347 347 348 349 351 352
297 293 290 293 293 292 296 303 310 310 309 309 312 310 306 313 317 317 317 315 316 316 316 314 316 315 308 306 312 318 321 318 320 320 318 313 312 317 323 329 333 335 336 339 341 341 340 341 342 344 343 343 343 344 346 348 347 347 346 346 348 350 351
299 295 289 288 289 291 298 306 310 310 311 312 311 309 300 311 318 316 319 318 317 317 316 315 313 308 305 308 312 319 320 321 321 322 325 320 316 311 320 328 331 334 337 339 342 347 346 343 345 346 345 344 343 343 345 346 347 346 346 346 347 348 349
297 295 291 288 293 296 306 310 310 311 312 310 305 294 298 310 317 318 318 317 318 318 318 318 317 313 308 313 316 321 322 324 330 332 333 331 333 338 315 328 335 335 338 339 339 342 345 345 346 347 347 345 344 344 344 346 346 345 346 347 348 348 349
297 296 294 292 299 308 311 312 314 315 315 308 297 289 303 313 318 321 321 320 320 319 318 317 315 317 318 318 320 325 329 332 334 335 336 338 341 343 344 341 334 335 338 339 339 340 343 346 348 349 348 346 344 343 344 345 344 346 347 348 348 347 347
295 296 293 292 298 306 312 314 316 317 310 298 292 306 313 318 319 321 323 323 323 322 320 319 319 322 326 329 328 329 331 331 330 330 331 333 336 341 346 344 331 324 334 340 340 340 341 343 346 348 349 347 345 344 344 343 345 347 347 347 347 346 346
301 298 294 289 286 302 313 313 312 316 304 303 308 317 319 322 320 322 323 325 326 326 324 324 325 328 330 329 328 329 332 334 335 334 331 331 330 333 339 341 341 329 331 337 341 341 344 347 347 347 346 346 346 345 344 345 347 347 347 347 345 345 345
294 295 293 292 303 308 314 312 305 312 315 317 320 318 316 320 321 323 325 326 328 329 329 330 332 333 334 335 336 337 338 339 340 340 339 340 339 335 338 342 340 341 337 338 341 341 344 345 346 347 347 345 344 343 344 348 348 348 347 347 346 344 344
302 299 304 311 312 313 315 314 313 314 319 322 322 321 321 322 324 326 326 325 327 329 329 329 330 331 333 334 336 336 336 338 338 337 336 336 336 337 338 340 343 341 338 337 336 339 342 342 343 343 344 344 343 342 345 347 347 348 348 349 350 347 347
314 313 312 315 315 315 314 316 317 316 317 318 323 326 324 325 326 326 325 326 327 327 329 328 327 329 330 333 334 335 336 336 336 336 334 334 334 334 335 335 338 343 346 341 339 336 335 336 338 339 341 342 340 340 347 351 355 356 355 352 352 352 352
301 295 313 311 313 315 314 313 315 317 317 317 317 314 316 318 321 323 325 326 326 326 327 327 326 327 329 330 331 332 333 334 335 334 333 332 332 332 331 334 336 336 336 335 334 335 334 335 338 341 341 341 341 342 346 350 353 357 357 356 353 354 355
304 304 310 312 316 317 315 314 312 313 315 316 316 315 316 317 318 318 318 319 319 323 322 324 325 325 328 328 328 329 329 330 331 333 333 331 330 331 331 333 334 333 333 332 333 334 334 335 337 338 340 340 341 342 345 352 355 353 353 354 355 356 356
307 310 314 314 315 314 312 313 314 314 315 315 314 315 315 316 316 316 317 317 317 317 318 320 322 322 323 327 329 329 329 329 330 330 332 333 332 331 331 332 333 332 332 331 331 332 332 334 336 336 337 338 340 340 341 342 346 350 350 350 352 354 353
299 303 308 313 304 303 308 311 313 314 315 316 313 313 313 314 314 315 316 316 316 316 317 318 320 319 320 322 325 327 328 328 329 330 331 332 334 333 333 334 333 333 333 332 331 331 330 331 332 334 335 335 337 339 339 340 340 339 338 339 341 342 344
300 311 314 315 313 310 311 312 314 315 316 317 316 312 313 313 313 314 315 314 314 315 316 318 318 318 318 319 320 321 322 325 329 331 331 332 333 335 332 331 332 333 334 334 332 332 331 331 331 332 333 336 335 337 337 338 339 337 338 337 336 336 336
312 315 315 316 313 309 310 313 314 315 317 318 317 318 316 313 314 313 312 312 313 313 314 316 317 318 318 318 319 319 320 322 324 326 330 333 334 336 337 335 333 332 333 333 331 331 331 332 330 329 331 335 336 338 337 336 336 335 336 334 332 332 332
310 318 317 316 314 314 316 315 314 315 317 318 315 316 318 316 313 314 312 312 312 313 313 313 316 318 318 318 318 318 320 322 324 326 328 331 334 334 335 335 335 335 335 336 336 335 334 333 332 331 330 332 336 336 336 338 338 336 335 333 331 331 332

ECMWFFLT2_sfc_thetae_033.txt.gz
Theta_e
302 303 305 304 303 294 295 297 293 297 298 297 291 294 294 294 290 288 293 296 295 298 302 305 310 311 313 316 318 318 319 319 320 320 321 322 323 325 326 328 329 331 332 333 334 334 335 337 337 338 339 341 343 343 343 343 344 345 346 348 349 349 350
303 305 304 305 305 300 293 293 296 298 300 300 294 286 289 288 284 286 292 292 291 296 292 304 306 307 311 313 315 317 318 318 318 320 321 322 323 324 326 328 330 331 332 334 334 335 336 336 337 338 339 341 343 344 344 344 344 344 346 347 349 349 349
302 304 303 301 303 305 302 297 299 298 288 290 289 287 286 284 285 285 286 291 293 294 296 301 303 306 308 310 313 315 316 317 318 319 321 323 324 324 325 326 328 330 331 333 334 335 336 337 339 339 340 341 343 344 345 345 344 346 347 347 348 350 350
301 301 300 294 299 302 303 299 297 299 294 293 289 292 287 288 283 286 284 289 291 297 297 300 304 306 309 311 312 313 315 317 318 320 321 322 323 324 325 326 327 329 331 332 334 335 335 336 337 339 340 341 342 344 346 346 346 346 347 348 348 348 349
299 294 297 297 298 297 298 296 295 295 297 295 297 294 293 290 283 281 284 285 289 293 299 303 304 306 309 310 311 313 315 317 319 320 322 323 323 324 325 326 327 328 330 331 333 335 336 337 338 339 340 340 342 343 345 346 346 346 347 348 349 349 349
294 294 300 302 301 301 300 299 296 296 294 290 288 289 294 291 289 284 283 287 293 294 304 306 305 306 309 312 313 314 315 317 319 321 322 323 324 324 325 326 327 328 329 330 332 334 336 336 336 338 340 340 341 342 344 346 347 347 347 348 349 349 350
296 298 301 304 305 304 303 301 299 298 293 291 290 284 288 292 291 294 291 287 293 299 304 307 307 307 308 310 313 314 316 317 319 321 322 323 325 325 325 327 328 329 329 330 331 332 334 335 335 337 339 340 341 342 343 346 347 347 348 348 350 351 350
298 300 301 300 302 303 301 301 302 300 296 296 296 293 290 291 289 290 288 289 290 300 305 306 306 307 307 308 312 314 316 317 318 320 322 322 323 325 326 327 328 329 330 330 331 331 332 333 334 336 338 340 340 341 343 345 346 347 348 349 350 351 351
290 294 297 297 299 300 298 298 301 302 302 299 295 293 293 292 290 290 288 288 291 298 307 306 305 306 307 307 309 313 314 316 318 319 321 322 323 324 325 326 326 328 329 329 330 331 332 333 334 336 338 339 340 341 342 344 346 348 349 350 350 350 351
284 285 286 289 292 295 297 298 300 301 301 299 296 294 291 290 291 291 288 288 289 296 300 306 304 303 304 305 307 311 314 315 316 318 319 320 322 323 325 326 326 326 328 329 330 331 332 333 334 336 338 339 340 341 342 344 345 347 348 350 350 350 350
289 291 293 296 299 295 296 297 298 299 301 302 300 297 292 291 288 291 291 292 294 298 301 301 303 302 303 304 303 308 310 311 314 316 318 319 321 322 324 326 326 326 327 328 330 331 333 334 334 336 338 339 340 340 342 343 345 347 348 349 350 349 350
296 297 296 299 300 298 298 297 298 299 299 300 299 296 294 294 290 291 293 294 295 295 295 297 299 303 302 302 301 305 307 310 312 314 316 326 320 322 324 325 326 325 326 327 329 331 332 334 335 336 338 339 340 341 341 343 345 347 349 349 349 349 350
297 298 298 300 299 300 299 299 299 298 299 298 297 298 295 296 295 294 295 295 295 295 298 300 301 303 305 304 303 304 306 308 311 313 314 317 320 321 323 324 326 326 326 327 329 330 332 334 335 336 338 339 341 341 342 344 345 347 349 349 349 350 350
296 297 298 299 298 298 298 299 299 299 299 298 299 299 297 297 297 298 298 297 297 299 300 301 304 304 304 304 306 308 308 309 312 313 313 315 318 320 321 323 325 326 327 327 328 330 332 334 335 336 338 339 340 341 342 344 345 347 349 349 349 350 350
293 296 299 298 298 298 296 297 298 299 300 300 300 300 299 299 298 298 296 296 298 300 301 303 304 304 303 308 308 309 308 311 315 314 315 315 317 320 322 322 324 325 326 327 328 330 332 334 335 337 338 340 341 342 343 344 346 348 349 349 350 350 350
290 295 296 297 298 298 297 297 297 297 298 297 299 298 299 297 296 297 295 293 295 299 301 301 302 301 303 303 306 306 308 313 317 316 317 316 316 318 321 322 324 325 326 327 328 329 331 334 335 337 339 340 341 341 343 344 346 349 349 349 349 350 351
288 294 296 296 297 295 293 295 298 299 298 299 300 300 302 301 301 297 295 297 299 301 303 301 301 302 301 301 301 304 307 309 314 317 317 318 318 318 320 322 324 324 325 326 328 330 331 334 336 338 340 340 341 342 343 345 347 349 349 350 350 350 351
289 293 294 296 292 286 291 301 302 301 299 298 297 297 299 300 301 300 302 302 303 302 300 300 301 302 303 304 305 306 308 309 311 316 318 318 319 319 321 323 324 325 326 327 329 330 332 334 337 338 340 341 342 344 344 346 346 348 349 350 350 350 351
287 292 293 291 285 289 299 302 302 303 303 301 299 299 299 301 300 300 301 302 302 301 301 303 302 304 304 307 307 306 307 309 313 316 319 318 319 320 320 320 322 323 324 326 327 329 331 334 336 338 339 341 343 343 344 344 346 347 348 349 350 351 351
291 290 289 283 283 295 301 303 303 304 302 300 301 301 306 308 303 300 300 301 302 301 302 303 304 312 312 314 317 316 316 313 310 313 316 319 322 321 321 322 322 323 324 325 326 329 333 335 336 337 338 341 342 342 344 344 345 346 347 348 349 350 351
285 287 288 289 297 297 300 302 302 305 298 300 301 296 300 308 312 302 301 303 305 307 307 305 308 310 312 312 313 317 318 318 315 313 314 316 320 322 323 323 323 325 326 327 328 331 333 335 336 337 339 340 341 342 343 344 344 345 346 346 347 349 350
291 287 285 288 287 287 291 303 309 312 313 311 306 303 302 309 312 312 308 309 309 310 311 309 310 309 309 308 311 315 320 319 319 320 316 312 313 318 324 326 327 328 327 329 332 333 333 335 336 338 338 339 340 341 342 343 343 343 344 345 347 348 349
293 291 286 285 285 288 298 305 308 312 313 312 311 303 298 307 310 314 314 311 311 311 311 310 308 305 304 306 310 316 319 319 326 329 330 329 330 317 313 320 327 328 329 330 331 333 333 334 336 337 338 339 340 341 342 342 343 342 343 344 346 347 349
293 292 289 286 290 295 302 306 310 311 314 314 304 294 294 306 314 315 315 314 314 312 310 310 306 307 306 308 311 318 325 323 328 328 328 331 333 338 336 319 321 328 331 333 330 331 332 333 335 337 337 338 339 340 342 343 342 342 343 344 346 348 349
297 296 290 292 294 304 308 309 311 312 314 307 297 291 300 310 314 317 316 316 315 314 314 314 313 313 312 315 319 329 330 331 333 335 334 331 331 333 337 339 337 328 330 332 332 334 335 335 336 337 338 337 337 339 341 342 342 344 345 346 346 347 348
294 294 291 291 295 303 310 312 312 315 308 294 291 301 309 315 317 319 319 318 318 318 318 319 320 321 325 329 332 335 336 334 333 335 336 336 337 338 339 341 341 338 328 331 333 334 335 338 339 338 339 338 337 337 338 340 343 346 347 346 346 346 347
298 297 294 290 286 299 312 312 311 314 303 301 310 312 315 320 320 322 323 322 322 325 325 326 328 332 333 333 333 333 334 333 332 332 332 332 333 333 335 337 340 339 334 335 336 336 339 340 340 342 338 337 337 338 337 339 343 345 346 347 346 346 346
290 291 288 289 301 307 314 311 304 309 311 313 313 313 313 321 321 323 325 325 326 330 330 330 330 331 331 331 331 332 332 331 331 331 331 331 332 334 336 338 338 337 334 334 334 335 336 337 337 339 342 340 338 337 337 339 342 343 342 343 344 344 344
299 295 299 309 312 314 316 315 313 314 315 315 314 313 321 322 321 322 325 324 326 329 330 330 330 329 330 330 331 330 329 330 329 328 328 329 330 332 333 335 337 335 333 332 333 334 336 337 338 337 338 340 339 340 340 341 342 342 343 342 342 342 343
312 313 314 316 315 315 313 316 318 315 314 315 315 313 313 318 321 322 324 324 325 326 328 328 326 327 327 327 328 329 329 329 329 329 328 328 330 332 334 334 334 334 334 334 335 335 335 337 338 340 339 337 341 339 339 342 345 346 346 344 343 342 341
300 293 311 311 312 314 313 314 317 317 315 314 316 314 314 314 316 318 320 323 324 326 327 326 325 326 327 327 327 328 328 328 329 329 328 328 329 330 331 332 333 332 333 333 333 334 334 336 338 340 341 340 340 341 340 343 347 347 347 345 344 342 341
299 302 309 313 316 314 315 314 313 313 315 315 317 316 316 317 316 316 317 320 321 324 324 325 326 325 327 326 326 327 327 328 328 329 329 328 328 329 329 329 329 329 330 330 331 332 332 333 334 336 338 339 339 339 340 342 346 346 346 346 346 345 343
306 311 313 314 315 314 312 314 314 315 315 316 316 316 316 316 317 317 317 318 318 320 320 322 322 321 321 324 325 326 327 328 329 329 329 328 327 328 328 329 328 327 327 327 326 328 328 330 332 332 333 335 336 336 338 339 340 342 343 344 347 348 348
300 301 305 312 303 302 309 311 313 314 315 317 316 316 315 315 314 316 316 316 317 318 318 319 319 318 319 320 323 324 326 327 329 330 330 331 331 330 329 330 329 329 330 329 328 327 326 327 329 330 331 333 334 336 337 338 339 339 338 339 339 341 342
298 309 313 313 310 308 310 312 313 315 317 317 315 314 314 313 314 314 315 315 315 316 317 318 318 318 319 320 323 323 324 326 328 330 330 330 332 333 333 332 331 331 330 332 329 329 328 329 327 327 329 332 333 335 335 335 335 335 336 337 334 334 337
311 313 312 315 311 307 310 313 313 314 317 317 315 315 316 314 312 311 311 312 314 314 316 317 318 318 319 321 323 323 324 326 327 328 329 330 331 332 334 334 334 334 334 334 334 333 331 329 327 327 329 332 333 336 337 336 334 332 333 334 333 331 330
308 316 316 314 312 313 314 314 314 314 316 318 315 315 315 314 313 311 309 309 311 313 314 315 316 318 319 320 322 323 324 325 327 328 329 330 331 331 332 332 333 333 333 333 334 334 334 332 331 332 332 333 334 336 338 338 336 334 333 331 330 329 329

ECMWFFLT2_sfc_thetae_036.txt.gz
Theta_e
302 304 304 303 302 293 293 296 293 296 297 296 292 293 291 291 287 285 289 292 293 296 298 303 304 305 307 312 315 316 316 317 318 318 320 322 324 326 328 329 329 331 332 333 333 333 334 335 336 337 338 340 342 343 343 343 344 345 345 347 348 349 349
300 302 305 303 304 299 294 292 296 296 300 298 294 286 287 288 283 284 289 290 288 292 291 301 303 303 305 308 312 315 316 317 316 317 318 320 322 325 327 329 330 331 332 333 333 333 334 335 336 337 338 340 341 343 343 343 344 344 345 346 347 348 348
299 300 302 299 302 301 300 297 299 298 287 289 288 288 285 283 282 282 283 287 291 292 293 298 302 303 304 306 310 312 314 315 316 317 318 319 321 323 325 326 328 329 330 332 333 333 334 335 337 337 338 339 340 342 343 343 343 344 345 346 347 349 349
298 299 299 293 296 299 301 297 297 298 294 292 288 290 285 288 282 284 282 288 289 294 295 297 301 304 306 306 307 310 313 315 317 318 319 319 320 321 323 325 327 328 330 331 332 333 333 334 335 336 337 338 339 341 343 343 344 345 346 346 347 347 349
297 292 295 296 297 295 296 295 294 293 296 294 296 292 292 288 283 282 283 284 289 295 297 301 302 304 307 308 308 310 312 315 316 318 319 320 321 321 322 324 325 327 329 331 332 333 334 334 335 336 337 337 338 340 341 343 343 343 344 345 346 347 348
291 291 298 300 300 300 298 297 295 295 292 290 288 286 292 289 288 283 281 286 290 292 301 304 303 305 306 308 309 310 312 314 316 318 319 320 320 322 323 323 325 326 328 330 332 333 334 334 334 335 336 337 337 339 341 342 343 343 343 344 345 347 348
292 295 299 303 303 302 301 299 297 298 293 290 288 284 287 290 290 291 289 286 292 297 302 304 305 305 305 307 309 310 312 313 315 317 318 320 321 322 323 324 324 325 327 329 331 332 333 333 334 335 336 337 337 338 340 342 342 343 344 344 346 347 347
295 297 297 298 299 299 298 298 299 297 295 296 295 294 289 289 288 290 288 288 289 295 303 305 305 305 305 305 307 310 311 312 314 315 317 318 320 322 323 324 324 325 327 328 330 331 332 333 334 334 336 337 338 338 339 341 342 343 344 345 345 346 346
290 292 294 294 296 298 295 295 298 298 298 297 297 294 290 291 289 291 287 287 290 297 305 305 305 303 304 306 305 308 310 311 312 314 316 318 320 321 322 323 324 325 325 326 328 330 331 333 334 335 335 336 337 338 339 340 342 344 344 345 345 346 346
283 283 284 285 288 292 292 295 297 299 298 296 294 292 291 289 290 291 288 288 287 294 299 303 304 304 304 304 304 307 308 311 312 313 315 317 318 320 321 323 323 324 325 327 328 329 331 332 333 335 336 336 337 338 339 341 341 343 344 345 346 346 346
287 288 290 293 298 294 291 294 296 296 298 299 298 296 291 290 287 290 291 293 292 296 300 300 302 303 303 305 303 304 307 309 311 313 315 316 318 320 321 322 323 325 326 326 327 329 330 331 333 334 335 336 337 338 339 341 342 343 345 345 346 346 346
294 295 294 296 297 294 295 294 295 296 297 298 297 294 293 294 290 290 294 293 294 295 297 298 300 301 301 301 301 301 302 305 308 311 313 323 318 319 321 323 323 324 325 327 327 328 329 330 332 334 335 336 337 338 339 340 342 343 344 346 346 346 346
294 295 295 296 296 296 296 297 296 296 296 297 296 296 295 296 295 293 295 294 295 296 296 298 300 301 304 303 304 303 303 303 306 310 311 311 314 317 318 321 323 324 324 326 327 328 329 330 331 332 334 335 337 338 340 341 341 342 345 345 346 346 346
292 294 295 296 295 295 295 295 296 297 297 296 297 297 298 297 297 297 298 295 297 298 299 298 300 301 302 303 306 307 308 305 307 308 308 310 312 314 316 319 322 324 325 326 327 328 329 330 331 331 333 335 336 337 338 340 341 343 344 345 346 346 346
290 293 296 295 295 294 293 295 296 297 297 297 298 298 298 298 297 297 296 296 296 299 300 302 303 303 301 304 305 304 305 305 306 307 308 310 311 312 315 318 321 324 325 326 327 328 329 330 331 332 333 334 336 337 338 339 341 342 344 344 345 346 346
287 292 293 294 294 294 294 294 296 296 295 294 296 296 297 296 295 296 296 295 295 298 300 301 302 302 302 302 303 303 304 306 308 309 310 310 311 312 313 316 319 322 324 325 326 327 328 330 331 332 333 334 335 336 338 339 340 342 343 344 345 346 347
284 291 292 292 292 293 292 294 297 298 297 297 297 297 300 301 300 297 295 296 300 301 303 301 303 302 302 302 301 303 303 306 309 311 312 312 313 313 315 316 320 320 323 325 327 327 328 330 331 333 334 334 335 337 338 340 341 342 342 343 345 346 347
285 290 291 292 289 284 288 298 300 300 298 298 296 297 297 298 300 300 302 302 303 301 301 301 302 303 303 305 305 305 306 306 306 308 312 313 314 314 315 317 319 322 324 326 327 328 329 331 332 334 336 335 336 338 339 341 341 342 343 343 345 345 347
284 288 290 287 283 286 298 299 304 308 307 301 299 300 299 299 299 300 299 299 300 301 302 303 305 306 306 308 308 306 304 306 306 307 308 309 313 316 317 317 319 322 324 326 327 328 328 330 332 334 335 337 338 339 340 340 342 342 343 344 344 345 346
288 286 285 281 283 293 297 298 306 311 306 307 302 298 299 300 299 299 299 300 301 301 301 302 304 304 305 312 315 314 315 308 309 308 309 312 314 317 319 319 319 322 323 325 326 327 331 331 332 334 335 337 337 338 340 341 341 343 343 344 344 345 346
282 284 284 286 293 292 295 301 304 305 302 303 302 296 299 300 303 299 299 300 300 301 300 301 304 310 313 313 316 316 317 319 314 311 312 312 313 315 319 321 320 323 326 326 327 332 334 331 332 333 335 337 338 339 340 340 342 342 343 344 344 346 346
289 283 282 283 284 283 289 302 308 310 311 310 308 303 299 304 306 305 301 300 301 301 303 304 305 310 309 306 310 314 318 320 324 329 326 328 326 319 317 320 324 325 325 326 329 329 330 331 332 334 336 338 339 339 340 341 342 342 343 344 345 346 347
288 285 281 281 282 287 293 301 307 309 311 311 310 301 296 301 307 311 305 301 301 303 305 302 308 308 304 302 308 314 317 324 328 329 331 331 332 335 335 326 322 325 329 328 329 331 330 329 332 335 336 338 338 339 340 341 342 342 343 344 346 346 348
288 286 284 282 288 290 299 306 308 310 312 312 303 292 291 302 309 311 312 308 303 304 305 307 309 307 301 303 309 315 323 327 333 332 332 332 334 336 338 338 335 330 334 333 330 329 329 332 334 336 336 338 339 339 339 341 341 341 343 345 347 348 349
288 290 285 287 290 298 306 307 310 312 313 303 294 290 293 307 309 312 312 314 314 309 307 310 308 307 307 310 319 333 333 332 331 332 333 334 335 336 338 337 336 332 331 330 330 332 335 337 336 336 336 337 338 339 340 340 340 342 344 346 347 348 349
286 287 285 286 291 297 307 311 311 313 307 294 292 302 310 310 311 312 313 316 317 313 309 310 309 316 325 333 332 331 331 330 329 330 332 334 336 337 338 339 336 335 335 335 336 337 337 338 338 337 336 336 337 338 339 339 341 344 345 345 346 347 348
292 292 288 287 283 295 311 310 309 311 302 301 309 310 312 313 312 315 319 322 321 319 318 323 326 330 330 330 329 329 329 329 328 329 331 332 333 333 334 334 335 336 335 335 335 335 337 338 337 338 339 336 337 338 338 340 345 349 347 346 347 347 347
288 290 287 287 295 303 311 308 301 308 311 313 313 312 309 313 313 313 313 322 325 327 326 328 328 328 327 327 327 327 327 328 329 329 331 333 334 334 334 335 335 335 334 335 336 336 337 339 339 338 339 339 337 336 338 344 346 348 347 346 346 346 346
297 294 297 303 308 311 313 312 311 313 315 316 315 314 312 312 313 315 314 318 324 327 328 328 327 326 328 327 328 327 327 327 328 329 330 331 332 333 332 333 335 335 334 334 335 335 336 338 339 339 339 339 339 338 339 341 343 345 344 345 345 345 345
305 307 310 311 312 311 312 315 316 314 314 315 315 314 312 314 315 316 315 316 323 326 326 326 326 327 327 327 328 328 328 328 329 330 330 330 331 331 331 331 333 334 335 335 334 333 333 335 337 338 339 339 338 338 341 342 345 346 344 344 344 345 345
297 293 309 309 309 312 312 312 314 315 315 315 316 314 314 314 315 316 318 317 322 327 328 327 327 327 328 327 327 328 328 328 328 328 328 329 329 328 328 330 331 330 331 331 331 332 331 332 334 335 336 338 338 339 340 341 345 348 346 344 343 344 345
294 297 307 310 312 312 313 312 312 313 314 316 317 317 316 315 316 317 318 319 321 325 326 327 327 327 328 328 327 328 328 328 328 327 327 327 328 329 329 330 330 330 329 328 329 329 329 329 331 333 334 335 336 337 338 340 341 345 348 346 344 344 344
298 304 309 311 311 311 312 314 314 315 316 316 316 316 316 315 314 315 317 319 319 321 321 324 326 326 328 330 330 330 330 330 330 331 331 331 330 331 331 331 331 330 330 330 329 329 329 329 329 331 332 334 335 336 336 338 339 341 343 345 346 346 346
290 295 304 310 301 300 308 313 314 315 317 315 314 314 314 314 313 314 315 318 320 321 321 321 324 325 326 329 330 329 329 329 329 331 332 333 334 334 335 335 335 335 334 331 330 329 329 329 329 330 332 334 335 337 337 337 337 339 340 339 338 338 339
294 304 309 311 308 308 310 312 314 315 317 317 313 312 312 313 313 313 313 315 318 319 320 320 321 324 326 327 329 328 328 328 328 329 330 331 332 333 334 334 334 334 334 335 332 331 329 329 330 332 333 334 335 337 337 336 335 335 336 336 334 334 333
302 304 305 312 309 306 310 314 314 314 316 316 313 314 315 313 313 314 314 314 316 316 317 319 321 321 324 326 326 325 326 327 328 328 329 330 330 332 332 332 332 332 332 332 332 331 332 331 331 332 334 335 336 338 337 337 336 335 334 333 331 331 332
300 307 311 313 312 312 313 314 315 316 317 315 312 313 314 315 315 316 314 314 316 317 317 318 320 321 323 325 325 325 326 327 328 329 329 329 329 328 329 330 330 331 331 332 331 331 332 332 332 333 333 335 336 337 336 336 335 334 333 332 331 330 330

ECMWFFLT2_sfc_thetae_042.txt.gz
Theta_e
310 310 311 311 312 300 306 306 301 304 311 307 302 303 303 303 301 299 306 303 305 310 311 314 314 315 316 317 317 318 320 321 324 326 332 334 335 338 342 344 347 350 350 352 353 354 354 355 356 356 358 359 361 361 362 364 365 367 366 366 365 363 363
310 313 312 312 312 312 309 302 305 311 312 310 304 297 301 298 294 298 302 300 303 303 300 312 311 311 312 315 316 317 320 322 324 327 332 335 336 338 342 346 349 350 350 351 352 353 354 355 356 357 360 361 361 361 362 363 364 364 365 366 363 363 364
310 313 312 309 312 313 309 306 313 304 299 298 304 302 295 295 294 296 300 302 302 305 306 311 310 310 311 314 316 316 316 319 321 326 330 334 337 338 340 343 346 348 349 350 352 352 353 355 357 358 359 360 360 361 361 361 363 363 364 363 364 365 365
310 310 308 301 305 311 312 313 309 311 308 303 300 302 303 303 297 298 298 301 300 308 308 310 311 314 314 313 314 315 316 318 320 324 327 330 335 337 339 342 344 346 348 349 350 351 351 353 355 356 357 357 357 359 360 361 362 364 365 364 365 364 364
309 302 306 304 306 303 304 305 305 306 306 310 308 307 302 300 299 299 299 298 304 311 313 311 312 315 316 315 315 317 317 318 319 322 324 330 335 337 338 341 343 345 347 348 349 352 351 352 355 356 355 356 356 356 358 359 360 360 361 362 363 364 364
303 305 310 309 309 309 306 305 304 306 303 302 299 299 307 303 300 296 298 298 307 308 313 314 314 315 315 316 317 318 320 319 322 322 324 329 333 339 340 340 341 343 347 348 348 350 352 350 351 352 353 354 354 355 356 357 357 358 358 360 362 364 364
304 307 311 313 313 312 310 308 306 308 307 306 302 295 301 304 303 304 303 300 305 314 314 315 315 315 315 317 316 316 317 320 321 323 323 328 337 339 338 340 339 342 346 348 348 349 350 350 350 351 352 352 353 355 355 356 355 356 357 359 361 364 364
308 310 312 312 313 311 308 309 309 308 305 306 304 304 307 303 304 300 300 299 304 314 318 316 315 318 316 318 317 318 317 318 320 322 324 328 333 341 338 338 337 341 342 346 349 348 349 350 351 350 351 352 352 353 353 354 354 355 356 358 359 362 363
302 303 306 307 310 310 307 306 308 309 309 309 308 308 309 303 304 303 300 296 303 313 317 319 316 316 315 316 316 318 318 320 319 321 325 333 340 342 339 338 339 340 340 343 349 349 354 352 349 351 350 350 350 351 352 352 353 354 356 358 358 360 361
293 292 293 296 300 303 307 309 309 309 308 307 305 301 304 298 306 307 302 302 310 313 318 315 315 314 316 316 317 317 319 322 320 321 324 338 337 341 344 342 340 339 342 344 350 352 353 350 349 351 352 350 349 350 352 352 352 354 354 356 357 358 360
300 304 306 306 309 306 302 305 307 307 308 309 308 307 303 300 305 303 306 307 309 309 311 312 314 315 315 315 317 318 318 320 325 333 334 331 335 341 342 343 343 345 346 345 349 354 350 348 349 349 349 349 349 351 351 351 352 353 355 356 357 357 359
304 302 303 304 305 305 305 304 304 307 307 308 306 303 302 310 305 298 307 311 306 309 311 313 314 315 316 316 318 318 319 324 326 327 338 342 332 338 344 345 345 346 348 348 350 353 351 347 348 348 349 348 349 350 350 351 351 352 353 356 356 357 358
300 301 302 304 304 305 305 305 305 305 306 307 305 306 307 309 304 302 309 311 309 310 312 314 315 317 317 316 318 319 321 320 323 330 325 326 327 334 340 349 352 352 350 353 352 349 350 347 347 348 347 348 350 351 351 352 350 351 354 355 356 355 357
300 301 301 303 303 303 304 304 305 306 306 306 306 306 307 307 308 309 309 312 309 311 313 314 315 317 317 317 319 320 320 318 322 324 324 320 321 322 326 340 344 354 352 354 356 353 352 348 347 346 347 350 348 348 350 350 351 351 353 354 356 356 356
299 301 302 301 302 302 301 304 305 305 306 306 307 307 307 308 307 308 309 310 309 313 318 317 318 318 317 318 316 316 319 319 318 319 319 321 321 322 325 331 331 345 353 352 356 355 353 352 349 347 348 350 349 348 348 348 351 351 352 355 355 356 358
298 300 300 301 301 301 301 301 303 304 304 303 305 304 307 306 306 307 307 306 307 313 316 317 318 318 318 317 318 317 318 318 319 319 319 321 324 324 324 326 329 332 349 352 353 353 351 352 351 349 351 349 348 346 347 348 349 351 351 353 354 359 360
297 300 299 299 299 299 297 299 302 305 305 306 307 308 309 308 308 305 303 305 312 314 316 314 315 316 316 316 316 317 319 322 320 320 321 321 322 323 327 327 329 328 330 338 354 348 348 349 348 348 351 348 349 349 350 350 352 350 349 351 357 360 362
297 298 297 299 297 291 294 307 308 307 305 306 304 305 307 309 310 308 310 311 315 315 315 314 315 315 316 318 320 321 321 321 322 321 322 322 323 324 325 325 326 329 336 340 340 348 350 349 347 349 351 348 349 351 349 351 351 352 353 354 359 361 362
294 297 297 294 290 293 306 309 311 310 309 308 307 308 309 310 311 311 310 311 313 315 316 316 318 320 319 320 319 319 320 323 322 323 325 327 325 327 328 329 327 331 340 351 350 346 344 344 346 347 348 348 349 350 350 348 351 357 354 354 356 362 363
297 295 295 288 291 302 304 307 310 314 313 314 311 308 311 312 312 312 311 312 313 315 315 315 317 318 317 318 320 321 321 323 323 321 321 322 322 323 324 328 332 344 340 345 342 344 344 341 338 343 346 347 346 347 349 348 349 352 355 355 355 360 362
290 293 293 294 302 299 302 302 308 311 309 310 307 302 306 312 319 319 319 319 316 316 317 318 318 320 319 319 321 323 322 322 322 322 323 322 323 323 327 327 332 348 350 346 343 345 345 343 340 341 344 346 346 346 347 347 350 350 353 356 356 359 361
295 292 291 293 293 290 297 305 314 315 317 317 316 312 310 320 322 321 321 319 322 321 321 323 326 327 319 313 315 320 321 321 321 323 324 325 325 327 330 336 346 353 352 347 346 346 345 347 346 346 346 347 347 347 348 348 350 351 351 356 359 361 362
293 292 289 290 290 295 306 306 313 315 317 313 320 307 302 321 323 322 324 321 325 326 326 327 330 322 313 312 317 321 325 324 323 324 326 328 331 337 343 348 348 347 355 355 349 350 349 345 348 348 348 347 345 347 349 346 349 351 352 355 358 360 362
292 291 290 289 295 295 305 311 311 316 315 314 314 298 300 319 322 321 325 322 324 326 329 330 329 325 316 313 319 331 332 337 339 338 337 341 348 350 350 351 354 356 357 356 349 348 346 349 349 351 346 347 350 349 346 346 347 350 353 355 360 362 362
291 290 290 294 296 302 303 308 312 315 313 310 301 295 312 317 322 323 325 324 324 328 328 329 325 330 333 333 335 337 336 334 341 346 350 350 351 351 351 352 354 353 355 355 351 349 358 358 352 349 346 347 348 351 352 351 349 350 356 359 362 363 363
289 291 288 290 295 302 304 306 306 308 304 298 298 316 319 323 322 326 325 326 328 329 330 330 330 332 334 335 336 336 335 336 346 349 349 351 351 351 353 351 355 355 352 354 353 352 355 355 351 349 350 350 351 354 355 353 353 353 357 361 363 364 364
293 293 290 288 284 299 304 307 305 307 299 303 317 318 321 322 325 323 326 327 329 330 330 331 332 333 334 336 337 337 340 344 346 349 350 351 350 351 354 355 353 352 354 354 353 353 353 354 356 354 350 353 354 356 355 357 355 357 359 363 366 366 365
289 289 287 288 297 307 310 311 303 310 312 318 319 320 315 317 322 324 326 328 331 331 331 331 332 334 335 337 339 341 342 344 345 347 349 351 352 351 352 352 354 354 354 354 354 355 355 358 359 359 354 355 357 357 357 367 362 362 365 365 366 364 364
294 293 295 302 305 307 310 310 311 315 319 321 321 321 322 320 322 330 328 330 331 332 332 333 334 333 335 336 338 338 340 342 343 345 347 348 349 351 351 350 353 354 354 355 355 356 357 359 361 364 362 360 360 363 363 365 364 363 363 363 363 361 362
302 303 303 305 305 306 307 309 313 313 313 317 322 322 321 326 327 329 329 330 331 332 334 333 334 335 336 336 336 336 338 339 340 344 347 349 350 350 350 351 351 352 353 355 354 353 355 356 356 358 359 360 359 359 361 363 366 363 362 361 362 361 361
295 291 303 303 304 306 308 309 312 313 313 316 322 323 325 327 328 328 330 331 332 331 333 334 334 334 335 335 336 338 339 340 342 343 344 345 346 348 348 348 350 349 350 349 350 350 350 354 355 354 355 355 358 359 360 359 362 367 364 362 361 361 361
293 294 300 302 305 306 307 307 307 309 311 313 319 322 324 326 327 328 329 331 332 332 331 334 336 335 336 335 335 336 338 340 341 341 342 343 343 345 346 347 348 349 349 348 347 348 348 350 352 352 353 355 357 359 359 361 363 363 363 360 359 359 359
296 300 301 302 304 304 305 306 308 309 313 317 317 318 320 324 325 327 329 331 331 331 331 333 336 334 334 337 338 337 338 339 340 341 342 343 343 343 343 344 345 346 346 346 347 345 346 348 349 350 351 353 356 359 361 364 366 364 362 359 362 361 360
292 293 298 304 298 299 304 307 312 314 314 314 315 317 317 319 323 326 329 330 331 329 330 333 335 334 334 336 337 337 338 340 341 342 342 342 341 341 342 343 343 343 344 344 343 344 345 347 347 347 349 351 354 356 359 362 362 363 363 362 362 361 361
293 300 304 305 305 304 304 306 308 312 313 312 313 314 315 317 321 325 328 331 331 328 328 331 334 334 335 335 337 337 336 338 340 340 341 340 339 339 341 341 341 341 342 343 344 344 345 346 345 345 347 348 350 352 355 358 360 359 359 356 356 355 356
300 303 303 304 302 301 304 307 309 310 313 313 312 314 315 317 321 325 328 331 331 329 329 329 331 335 336 337 336 336 337 337 338 338 339 340 340 340 340 340 341 341 342 343 343 343 344 344 345 345 345 347 349 350 352 353 356 356 356 354 352 352 352
300 305 305 304 304 305 307 309 309 311 312 313 311 313 316 318 322 325 327 330 332 329 324 325 329 332 334 335 336 336 336 336 336 336 336 336 338 339 340 340 341 342 342 342 343 344 344 345 344 343 343 344 347 347 349 350 351 351 352 352 351 351 351

ECMWFFLT2_sfc_thetae_045.txt.gz
Theta_e
313 313 315 313 314 302 308 308 303 306 312 309 306 308 308 307 304 301 309 306 308 313 313 315 316 317 317 318 319 320 322 324 327 325 330 330 328 332 337 336 344 350 351 355 355 356 356 358 357 357 360 361 363 364 365 368 370 371 370 369 368 366 366
313 316 315 314 314 315 311 303 307 312 314 312 307 300 305 302 298 302 306 304 305 305 302 315 314 314 314 316 317 318 321 323 323 324 326 332 332 333 336 339 348 350 351 354 355 356 357 358 359 359 361 362 363 364 366 368 369 369 370 369 367 366 366
312 316 315 311 314 315 311 308 315 306 301 300 306 304 297 298 297 300 304 306 306 307 307 312 312 312 313 316 318 317 317 319 320 321 323 331 334 333 334 339 347 349 350 352 355 355 356 359 361 361 361 361 362 364 366 367 368 368 369 367 367 367 367
311 313 311 303 306 312 314 316 311 313 309 305 302 304 305 304 299 299 300 303 302 310 311 313 314 315 315 315 316 317 318 319 320 322 323 326 331 331 331 335 343 349 350 351 354 354 355 357 359 360 361 361 361 363 365 366 367 369 369 367 367 366 366
311 304 308 305 307 304 306 307 308 308 308 311 309 308 304 302 301 301 302 299 304 310 314 313 316 317 317 316 316 318 319 321 322 324 324 327 331 332 333 335 339 347 350 350 353 355 355 357 359 360 359 360 360 361 362 364 365 365 366 365 365 367 366
305 306 311 311 310 309 308 306 306 308 305 303 300 300 308 305 302 298 301 301 309 313 317 317 317 319 318 318 318 318 319 319 324 325 327 330 333 336 335 335 338 343 350 351 351 355 355 355 356 357 358 360 360 360 361 361 363 363 363 363 366 367 367
306 309 313 314 314 313 311 309 307 311 309 308 304 296 302 306 305 306 306 303 307 316 318 318 317 318 318 319 319 319 319 320 321 323 324 329 333 334 334 336 335 340 347 351 350 353 355 355 356 357 359 358 358 359 360 360 359 362 362 363 365 368 367
311 313 314 314 314 313 310 310 311 310 307 308 307 306 309 305 305 302 303 302 307 314 320 318 317 319 318 321 319 320 320 320 322 323 325 329 332 335 334 336 335 338 342 350 353 353 355 355 356 356 357 358 358 359 359 359 359 360 361 362 364 367 367
305 307 310 310 312 311 308 308 309 310 311 311 310 311 312 306 306 305 302 298 304 314 319 319 318 317 316 317 318 319 319 321 322 323 324 327 337 338 337 339 339 342 342 350 355 354 360 360 354 357 357 357 357 358 359 358 359 360 361 361 362 365 366
296 296 297 299 302 305 308 310 310 310 309 310 308 304 307 300 310 310 304 304 311 316 319 318 317 317 318 318 318 319 322 322 321 322 324 332 335 339 338 337 337 339 348 354 360 360 362 355 353 358 360 357 356 357 359 359 359 359 360 360 361 364 365
302 306 309 311 311 308 304 307 309 309 310 311 311 309 306 302 308 307 310 311 311 313 314 315 315 316 315 315 319 319 320 321 325 332 332 332 337 341 336 340 341 348 350 352 356 359 353 351 352 352 353 355 355 358 359 358 358 359 361 360 362 362 364
310 309 310 309 310 307 307 307 307 309 309 309 309 306 304 313 307 300 311 315 311 311 314 315 316 316 319 318 321 320 321 322 324 326 332 339 331 339 343 343 344 346 349 351 354 357 353 350 352 351 352 352 354 356 356 357 357 359 359 361 361 363 364
309 312 307 309 309 310 309 309 308 308 309 309 307 308 309 311 306 304 312 315 313 314 314 315 317 319 319 317 318 320 323 323 326 328 324 325 328 334 336 343 349 347 346 353 352 351 353 350 350 351 351 352 355 356 356 357 356 357 360 360 361 361 363
309 309 308 310 307 309 308 309 309 310 309 309 308 309 310 310 311 312 314 315 312 315 315 316 317 319 319 320 321 322 322 320 325 323 323 322 324 324 332 341 344 350 350 353 355 354 357 352 352 350 351 354 351 352 353 353 356 356 359 360 362 361 362
306 309 309 308 308 307 307 309 309 309 309 310 310 309 310 311 310 311 311 314 313 316 320 320 321 323 321 321 318 318 321 321 320 321 320 322 323 324 331 347 346 353 353 356 358 358 358 357 353 352 353 353 352 350 351 352 355 355 355 362 359 360 365
302 306 305 306 307 306 306 307 308 308 308 307 309 308 310 309 309 310 310 310 311 317 320 320 320 320 321 320 320 320 321 320 321 321 321 322 325 325 325 327 330 332 332 348 360 359 355 355 354 353 356 352 351 349 350 351 352 353 354 356 357 365 367
300 304 306 305 305 305 302 303 307 309 309 310 311 312 313 312 312 309 307 309 316 319 321 318 318 317 319 319 319 321 321 324 321 322 322 323 323 325 328 329 330 326 326 331 357 355 354 354 352 352 354 351 353 353 354 353 354 352 352 352 363 369 366
299 303 304 305 301 295 297 309 312 311 309 309 308 308 310 312 312 312 314 315 318 318 318 316 317 317 319 321 323 324 324 324 324 321 322 322 323 324 326 327 328 332 333 332 333 334 346 349 349 352 353 349 352 353 352 353 353 356 357 357 362 363 366
299 302 302 298 293 295 309 311 313 313 312 311 310 310 311 312 313 313 312 314 315 317 318 319 320 322 321 322 322 322 322 324 324 324 323 325 327 328 329 329 327 332 336 338 340 338 336 337 344 351 351 350 351 351 352 350 354 362 358 358 359 363 366
301 300 298 291 293 306 308 310 312 315 313 312 311 308 311 312 313 313 312 314 315 317 317 318 321 322 320 320 322 322 321 321 322 321 322 324 324 325 327 330 332 337 330 335 335 341 346 342 338 342 347 350 347 347 350 350 350 353 359 361 359 364 365
295 298 298 297 306 303 306 307 309 311 309 310 308 304 308 313 314 315 314 315 316 316 317 318 319 320 320 321 323 323 323 323 324 324 324 324 325 325 328 327 327 335 356 350 346 346 343 340 337 337 339 343 347 346 348 348 351 350 355 362 361 364 363
300 297 296 297 297 295 301 309 314 316 315 314 315 311 309 316 316 317 316 316 319 319 319 320 321 323 322 318 319 322 321 322 322 323 324 325 325 324 325 331 330 338 340 346 352 349 343 341 341 341 339 339 346 351 349 349 349 350 351 355 360 364 363
298 296 294 294 294 299 308 309 312 316 318 317 318 311 305 316 318 321 319 318 320 319 319 321 327 323 314 312 317 321 333 336 338 336 338 344 346 336 336 341 343 345 351 360 361 356 352 345 344 346 344 341 342 350 353 348 350 350 353 354 357 359 363
296 296 294 294 300 300 306 310 312 314 316 315 312 299 301 320 322 321 321 319 322 325 329 330 326 319 311 312 319 331 337 339 338 338 338 346 349 348 344 342 357 360 360 359 355 349 344 350 353 354 348 347 353 358 348 348 349 350 353 357 360 361 364
294 294 295 298 301 307 308 311 314 313 314 312 302 296 310 321 323 324 322 321 324 327 326 327 321 326 328 330 334 334 336 335 337 340 344 350 352 350 350 352 357 351 351 353 355 354 365 366 355 353 351 350 353 358 358 356 353 352 356 359 364 365 365
292 294 293 294 300 307 309 315 314 314 307 299 300 314 323 323 322 324 323 323 325 328 328 328 328 330 331 333 334 335 335 335 337 340 346 352 351 349 352 359 358 353 351 360 357 351 359 361 359 357 357 356 358 360 358 354 356 355 361 363 363 366 368
294 296 293 292 287 304 308 309 311 310 303 311 316 318 321 321 321 322 324 324 327 329 329 328 327 328 330 332 335 337 337 337 340 344 346 348 347 347 350 351 358 355 356 358 356 359 357 358 359 356 354 356 357 357 356 359 357 360 363 364 367 368 369
290 290 290 291 300 310 310 309 304 313 314 315 319 317 318 321 321 323 324 326 329 330 331 332 330 330 330 334 338 339 341 342 345 349 351 352 353 352 351 353 356 356 358 356 358 360 361 363 364 362 358 357 358 358 360 364 362 361 364 365 368 367 368
297 294 297 308 308 310 312 312 311 313 316 316 317 319 320 320 323 328 326 326 329 331 331 331 331 329 331 332 334 336 338 339 340 343 346 348 350 349 354 353 356 357 358 359 359 360 361 363 369 369 362 360 360 360 366 367 364 362 362 364 366 367 367
305 305 305 308 308 309 310 311 312 311 313 315 315 315 317 323 325 326 326 327 329 330 331 330 330 332 333 333 334 337 339 340 342 344 344 345 351 353 354 356 355 358 358 359 359 357 357 357 360 367 370 368 366 369 370 370 369 367 367 367 368 367 367
296 292 305 305 306 308 308 310 312 312 312 313 314 316 320 322 323 323 326 328 328 329 331 331 331 332 333 332 334 338 340 341 342 342 347 349 350 350 351 353 356 357 356 354 355 356 357 359 359 357 360 361 363 364 364 365 369 369 369 368 366 366 366
297 297 303 306 308 308 308 308 309 310 312 313 315 318 319 320 321 322 324 327 328 330 329 331 331 331 334 334 336 337 338 340 343 345 347 348 349 350 351 352 355 355 355 354 353 354 353 355 357 359 360 362 364 364 362 363 365 368 366 365 364 364 364
300 302 303 304 305 306 307 308 310 311 311 315 316 318 318 318 319 321 323 325 326 328 329 332 332 332 334 338 339 337 339 341 342 344 346 346 347 348 349 350 352 352 352 352 352 351 351 353 355 356 357 359 361 363 365 368 368 366 363 363 365 363 362
294 295 299 303 297 298 303 306 308 311 315 314 314 315 316 317 318 319 320 322 326 328 330 331 333 333 334 338 340 340 341 342 344 345 345 346 346 347 347 348 349 350 351 350 349 349 349 351 352 352 354 357 359 362 365 367 369 366 364 365 365 362 363
294 301 303 305 305 305 306 308 310 311 313 313 312 313 315 317 318 319 319 321 325 327 329 333 333 334 336 338 340 340 340 343 345 345 345 344 344 344 345 345 346 347 347 349 349 348 349 350 350 351 352 353 355 359 361 364 365 364 366 365 365 364 363
302 305 305 306 305 303 306 309 310 311 312 312 312 313 314 315 316 318 319 322 323 325 329 332 335 335 336 337 337 339 341 342 342 342 342 344 343 343 344 344 344 345 345 346 347 347 348 348 349 349 348 350 353 353 357 360 362 362 362 360 357 357 359
301 306 307 307 306 307 308 309 310 311 312 313 311 312 313 315 316 317 318 320 323 326 327 329 333 335 335 336 337 339 340 340 340 340 340 341 344 343 343 343 344 345 345 346 347 348 348 348 347 347 347 348 351 351 353 355 358 358 357 356 355 354 353

ECMWFFLT2_sfc_thetae_048.txt.gz
Theta_e
314 313 315 314 315 302 307 307 302 304 311 308 304 305 306 305 302 299 306 304 306 310 311 313 315 315 315 316 317 319 321 324 329 329 330 330 329 332 335 335 335 342 343 344 345 348 350 354 354 354 356 359 361 363 364 365 366 364 364 364 364 364 365
314 317 315 315 315 314 309 302 305 311 313 311 305 298 303 300 297 299 303 301 303 303 300 312 313 313 314 315 315 317 320 323 324 325 328 330 328 330 335 339 341 342 344 346 346 349 351 353 354 355 359 360 362 364 364 365 366 365 365 364 364 365 364
313 316 315 312 315 315 310 307 313 304 300 299 305 303 296 297 296 299 303 304 304 305 305 309 310 311 312 314 318 316 316 318 322 323 328 331 331 331 335 338 340 340 340 343 347 345 349 356 358 357 359 359 361 363 364 366 366 366 365 364 365 366 365
312 313 311 303 307 313 314 315 310 312 308 303 301 302 304 304 299 299 300 303 301 309 310 311 311 313 314 314 315 315 316 318 321 323 325 331 331 331 333 338 337 336 337 339 347 352 353 355 356 356 356 356 357 360 365 366 367 367 367 365 367 366 366
311 304 309 306 307 305 306 307 307 307 307 310 308 307 303 301 300 301 300 298 303 310 314 314 314 315 316 316 316 319 317 318 321 323 325 330 331 331 331 334 338 337 340 346 352 354 355 356 358 357 355 355 356 358 363 365 366 365 366 366 366 366 367
305 306 312 311 311 310 307 306 306 307 304 302 299 298 307 304 301 297 300 299 310 312 316 315 316 318 317 317 317 317 318 318 322 323 326 333 331 331 332 332 335 342 346 348 351 354 353 354 356 356 356 356 356 357 361 364 365 365 365 365 366 368 367
307 310 312 314 314 313 311 309 307 310 308 306 302 295 300 304 304 306 305 302 307 317 317 320 317 318 318 318 318 318 317 319 319 322 323 330 332 330 329 332 332 335 341 340 340 344 347 351 356 356 357 355 355 357 360 363 363 364 365 365 365 366 365
312 312 313 314 314 313 310 309 310 309 306 307 305 304 307 303 303 301 301 301 306 314 330 323 318 323 319 320 318 319 318 319 321 321 322 328 333 334 332 332 334 337 341 344 341 341 348 355 358 357 357 357 357 357 359 361 362 364 364 365 364 364 364
305 306 308 309 312 312 308 307 308 310 310 310 309 309 310 304 304 303 300 296 304 313 321 319 318 317 317 317 318 319 317 320 320 322 325 329 336 335 333 334 339 345 346 344 343 344 351 357 356 358 358 358 357 358 358 359 361 363 364 365 364 362 362
295 295 295 298 302 305 308 310 309 309 308 309 307 302 306 299 309 309 302 302 310 314 320 316 315 315 320 318 318 319 320 321 320 322 326 336 335 335 336 341 342 340 345 347 346 348 358 358 355 359 360 358 357 357 358 359 360 362 364 363 363 363 362
302 304 308 309 310 308 304 306 308 307 309 310 310 308 305 301 308 305 309 309 309 311 312 315 314 315 315 315 317 317 319 324 332 342 339 340 345 338 337 343 343 344 345 346 345 348 356 353 353 356 357 357 357 360 360 359 360 361 363 363 363 362 363
309 312 310 311 311 307 307 306 306 308 307 308 308 305 303 317 307 301 313 323 308 310 313 315 316 315 319 318 318 319 324 325 326 332 342 341 333 339 342 346 353 351 348 354 358 360 357 354 355 354 356 356 358 361 360 360 359 360 361 362 362 363 364
309 311 311 312 310 309 309 308 307 307 308 307 306 307 309 312 306 305 316 321 314 313 313 313 315 318 319 317 318 319 321 324 329 334 329 329 328 332 335 353 359 356 352 358 362 360 357 355 354 354 354 356 359 362 360 360 358 359 362 361 362 362 364
308 309 310 311 310 310 310 308 308 308 308 307 307 308 310 310 314 314 314 320 313 314 313 314 316 318 318 319 321 322 323 322 332 325 327 325 328 330 333 340 345 360 360 366 366 365 363 356 356 352 354 357 358 359 358 358 361 360 362 362 362 360 362
305 307 309 310 310 308 307 309 309 309 309 308 308 308 309 311 310 310 311 315 315 316 320 319 319 321 319 320 319 320 324 322 321 321 321 324 327 326 328 342 339 350 353 359 364 365 364 361 360 355 355 356 356 354 356 356 360 360 361 363 362 361 362
302 306 307 308 309 309 308 307 309 309 308 306 308 306 309 309 309 311 310 312 310 316 319 318 320 320 321 319 320 320 321 320 324 321 321 326 329 327 330 337 339 348 347 352 357 358 358 357 358 357 359 356 354 351 353 355 356 357 358 362 362 363 364
300 305 307 307 307 306 303 304 307 310 310 310 311 311 311 311 312 308 307 310 316 321 321 318 318 318 319 319 318 321 322 332 323 322 322 323 324 331 338 342 350 345 344 347 356 350 349 350 350 351 358 352 354 354 355 356 357 356 355 357 364 365 365
299 304 305 307 303 296 298 310 312 312 310 310 309 308 310 312 312 311 314 316 320 320 318 317 317 318 319 323 327 324 329 330 330 322 323 322 323 324 325 329 331 337 342 349 356 353 355 354 348 350 354 353 356 355 354 358 356 356 357 358 364 365 366
298 303 304 299 295 297 310 313 314 315 313 312 311 312 312 312 312 313 313 315 318 320 320 320 321 324 321 322 322 321 322 326 324 326 323 326 327 332 336 341 331 352 349 346 356 350 342 352 354 352 352 352 357 355 355 355 356 361 360 358 361 367 365
302 300 299 292 294 307 311 312 314 315 313 313 312 309 312 314 313 315 315 316 317 320 320 320 322 323 320 322 324 326 322 322 321 320 322 323 323 324 328 340 353 349 337 344 332 350 342 344 344 351 350 349 348 350 350 351 353 357 362 360 360 369 366
296 298 297 298 307 304 307 307 311 311 309 310 308 305 310 316 315 315 315 317 317 317 317 319 320 321 320 319 322 321 321 322 321 321 322 322 325 340 346 328 329 357 360 347 352 356 352 349 345 341 348 349 348 347 348 348 354 353 358 362 359 366 367
300 297 296 297 297 295 302 309 313 315 315 315 315 311 308 314 315 317 316 315 316 316 316 316 318 318 316 314 318 324 322 322 321 324 335 330 339 343 346 352 335 356 364 358 352 346 350 352 348 347 343 349 352 352 350 350 352 351 353 359 360 364 368
297 296 293 295 293 298 307 308 312 314 315 315 315 309 304 315 315 316 315 314 317 318 318 319 321 318 314 314 324 330 332 334 334 336 338 344 347 347 348 352 349 351 358 358 353 354 355 348 354 356 350 346 345 355 354 347 347 349 353 356 360 361 367
294 295 294 293 300 299 306 310 312 314 316 315 313 299 301 314 316 321 317 315 318 319 321 325 323 319 315 316 321 331 333 334 336 336 337 340 346 348 347 348 349 358 360 358 352 352 352 359 352 354 348 350 354 365 354 349 347 351 352 356 363 364 368
295 294 295 299 301 309 310 310 313 314 316 313 302 296 311 320 322 322 320 318 323 327 326 326 322 325 327 328 331 333 335 335 336 337 340 343 345 347 346 347 356 353 355 353 352 354 367 370 365 359 354 355 356 359 368 354 350 350 356 361 366 366 369
293 295 292 294 300 306 309 314 312 313 310 300 300 314 320 323 323 324 324 324 326 327 327 327 327 327 328 330 332 334 335 337 338 340 345 348 348 349 351 355 356 356 354 358 357 353 358 362 359 358 367 368 375 374 375 362 357 359 370 366 367 368 368
295 296 294 292 288 303 310 311 311 314 306 307 313 317 319 322 323 324 325 326 327 328 329 329 329 329 328 330 331 332 334 336 338 340 341 346 346 347 346 350 355 354 353 354 352 354 355 364 364 364 359 366 368 371 372 377 374 374 383 369 370 369 368
290 291 290 291 302 306 311 311 303 309 311 315 317 315 316 322 323 322 324 326 327 328 328 327 328 328 329 331 331 332 336 338 340 341 344 345 343 341 344 349 354 353 351 353 358 360 362 362 363 367 368 367 366 368 369 371 382 369 381 375 374 370 367
294 293 297 305 306 307 310 311 309 311 314 314 315 314 317 320 320 322 323 323 325 327 328 328 329 329 331 331 331 332 334 337 338 339 340 342 345 344 350 352 355 354 356 357 357 360 362 362 367 371 370 368 359 359 366 369 369 375 373 379 374 370 369
303 304 304 306 308 309 310 309 310 311 312 313 313 314 315 318 319 320 320 322 323 325 327 327 329 329 330 330 331 333 336 337 340 343 343 345 349 350 350 351 351 353 355 358 358 357 359 360 360 367 371 365 363 371 372 373 369 367 370 376 375 372 370
296 291 304 304 306 309 309 308 311 313 312 312 314 316 316 316 317 317 320 321 321 324 325 327 327 329 331 331 332 334 336 338 339 340 344 347 348 348 348 349 350 352 353 352 354 354 354 357 360 360 362 363 364 367 371 369 367 371 378 375 373 374 373
296 297 303 305 306 307 308 308 308 309 311 313 315 316 316 316 316 317 318 320 319 321 323 327 328 328 332 332 333 333 335 337 339 342 343 345 346 348 349 349 350 352 352 352 351 352 352 354 356 357 358 360 363 365 361 366 369 370 371 372 367 369 367
300 303 304 305 306 305 307 308 310 310 310 311 314 315 315 315 315 317 318 318 318 319 322 326 327 328 331 333 335 334 335 338 341 343 346 346 346 347 348 349 350 351 351 350 350 349 350 353 354 357 358 360 362 364 366 367 367 366 367 366 369 366 365
295 296 300 304 298 298 304 307 309 310 312 312 312 313 313 314 314 315 315 316 318 319 321 323 325 326 331 334 336 333 335 337 341 344 345 346 345 347 348 348 349 351 351 351 349 349 350 352 353 354 355 358 360 362 366 369 370 368 368 370 369 365 364
294 301 304 307 305 304 305 306 308 310 312 312 311 311 311 313 315 315 315 315 316 318 319 321 324 326 329 333 334 334 334 337 341 343 345 345 345 344 345 345 347 348 349 350 349 348 349 350 351 351 353 354 357 360 363 366 368 370 368 370 367 365 364
302 304 304 306 304 303 305 308 309 309 312 311 310 311 312 313 314 315 315 315 315 315 317 319 322 325 329 331 333 333 336 338 341 344 344 344 345 344 345 345 345 346 346 347 347 347 349 349 349 350 349 351 354 356 360 363 365 365 363 362 361 360 360
300 305 306 307 306 307 308 309 309 310 311 311 310 311 311 312 313 314 314 314 316 315 315 316 320 325 329 333 333 334 335 338 341 343 344 345 345 345 343 344 345 346 346 347 348 348 349 349 348 347 348 348 351 352 356 356 358 359 359 359 359 359 359